Time,TemperatureF,DewpointF,PressureIn,WindDirection,WindDirectionDegrees,WindSpeedMPH,WindSpeedGustMPH,Humidity,HourlyPrecipIn,Conditions,Clouds,dailyrainin,SoftwareType,DateUTC
2013-05-14 00:00:00,77.1,68.6,30.08,North,352,2.2,2.2,75,0.00,,---,0.00,VWS V13.01,2013-05-14 04:00:00,
2013-05-14 00:01:00,77.0,68.5,30.08,North,357,1.2,2.2,75,0.00,,---,0.00,VWS V13.01,2013-05-14 04:01:00,
2013-05-14 00:02:00,77.1,68.5,30.08,North,10,1.2,4.5,75,0.00,,---,0.00,VWS V13.01,2013-05-14 04:02:00,
2013-05-14 00:03:00,77.2,68.6,30.08,North,6,2.2,2.4,75,0.00,,---,0.00,VWS V13.01,2013-05-14 04:03:00,
2013-05-14 00:04:00,77.0,68.2,30.08,North,3,2.8,6.0,74,0.00,,---,0.00,VWS V13.01,2013-05-14 04:04:00,
2013-05-14 00:05:00,77.0,68.1,30.08,NNW,329,1.9,5.0,74,0.00,,---,0.00,VWS V13.01,2013-05-14 04:05:00,
2013-05-14 00:06:00,77.0,68.1,30.08,NNE,17,4.7,4.7,74,0.00,,---,0.00,VWS V13.01,2013-05-14 04:06:00,
2013-05-14 00:07:00,76.9,67.9,30.08,NNE,14,2.1,4.7,74,0.00,,---,0.00,VWS V13.01,2013-05-14 04:07:00,
2013-05-14 00:08:00,77.0,67.9,30.08,North,6,2.4,7.0,74,0.00,,---,0.00,VWS V13.01,2013-05-14 04:08:00,
2013-05-14 00:09:00,76.9,67.7,30.08,NNW,346,2.4,6.3,73,0.00,,---,0.00,VWS V13.01,2013-05-14 04:09:00,
2013-05-14 00:10:00,77.1,67.9,30.08,NNE,25,1.9,3.0,73,0.00,,---,0.00,VWS V13.01,2013-05-14 04:10:00,
2013-05-14 00:11:00,77.0,67.8,30.08,North,4,2.1,5.2,73,0.00,,---,0.00,VWS V13.01,2013-05-14 04:11:00,
2013-05-14 00:12:00,77.1,67.9,30.08,NNE,27,0.6,2.4,73,0.00,,---,0.00,VWS V13.01,2013-05-14 04:12:00,
2013-05-14 00:13:00,77.0,67.8,30.08,North,357,2.4,2.9,73,0.00,,---,0.00,VWS V13.01,2013-05-14 04:13:00,
2013-05-14 00:14:00,77.2,68.0,30.08,North,7,1.2,3.2,73,0.00,,---,0.00,VWS V13.01,2013-05-14 04:14:00,
2013-05-14 00:15:00,77.1,67.9,30.08,NNW,339,2.4,2.7,73,0.00,,---,0.00,VWS V13.01,2013-05-14 04:15:00,
2013-05-14 00:16:00,77.1,67.9,30.08,NNW,342,0.5,2.4,73,0.00,,---,0.00,VWS V13.01,2013-05-14 04:16:00,
2013-05-14 00:17:00,77.1,67.9,30.08,NNW,336,1.2,3.0,73,0.00,,---,0.00,VWS V13.01,2013-05-14 04:17:00,
2013-05-14 00:18:00,77.1,67.9,30.08,North,0,3.0,3.6,73,0.00,,---,0.00,VWS V13.01,2013-05-14 04:18:00,
2013-05-14 00:19:00,77.0,67.8,30.08,North,357,1.4,3.7,73,0.00,,---,0.00,VWS V13.01,2013-05-14 04:19:00,
2013-05-14 00:20:00,77.1,67.8,30.08,NNE,13,2.8,4.7,73,0.00,,---,0.00,VWS V13.01,2013-05-14 04:20:00,
2013-05-14 00:21:00,77.1,67.8,30.08,NNW,346,2.5,3.6,73,0.00,,---,0.00,VWS V13.01,2013-05-14 04:21:00,
2013-05-14 00:22:00,77.0,67.6,30.08,NNW,346,2.1,5.7,73,0.00,,---,0.00,VWS V13.01,2013-05-14 04:22:00,
2013-05-14 00:23:00,77.0,67.7,30.08,North,6,0.0,2.1,73,0.00,,---,0.00,VWS V13.01,2013-05-14 04:23:00,
2013-05-14 00:24:00,77.0,67.7,30.08,North,7,1.7,1.7,73,0.00,,---,0.00,VWS V13.01,2013-05-14 04:24:00,
2013-05-14 00:25:00,77.0,67.7,30.08,North,3,1.0,2.1,73,0.00,,---,0.00,VWS V13.01,2013-05-14 04:25:00,
2013-05-14 00:26:00,77.2,67.9,30.08,North,11,2.1,3.9,73,0.00,,---,0.00,VWS V13.01,2013-05-14 04:26:00,
2013-05-14 00:27:00,77.0,67.7,30.08,North,1,2.1,2.1,73,0.00,,---,0.00,VWS V13.01,2013-05-14 04:27:00,
2013-05-14 00:28:00,77.0,67.7,30.08,North,11,1.7,3.9,73,0.00,,---,0.00,VWS V13.01,2013-05-14 04:28:00,
2013-05-14 00:29:00,76.9,67.7,30.08,NNW,342,1.2,2.5,73,0.00,,---,0.00,VWS V13.01,2013-05-14 04:29:00,
2013-05-14 00:30:00,76.9,67.6,30.08,North,356,1.4,7.1,73,0.00,,---,0.00,VWS V13.01,2013-05-14 04:30:00,
2013-05-14 00:31:00,77.0,67.7,30.08,North,357,2.9,5.2,73,0.00,,---,0.00,VWS V13.01,2013-05-14 04:31:00,
2013-05-14 00:32:00,77.0,67.7,30.08,North,349,2.2,4.4,73,0.00,,---,0.00,VWS V13.01,2013-05-14 04:32:00,
2013-05-14 00:33:00,77.1,67.8,30.08,North,0,2.7,2.7,73,0.00,,---,0.00,VWS V13.01,2013-05-14 04:33:00,
2013-05-14 00:34:00,77.2,67.9,30.08,North,8,1.5,2.7,73,0.00,,---,0.00,VWS V13.01,2013-05-14 04:34:00,
2013-05-14 00:35:00,77.2,67.9,30.08,North,6,2.0,2.4,73,0.00,,---,0.00,VWS V13.01,2013-05-14 04:35:00,
2013-05-14 00:36:00,77.1,67.8,30.08,NNW,347,0.8,2.5,73,0.00,,---,0.00,VWS V13.01,2013-05-14 04:36:00,
2013-05-14 00:37:00,77.1,67.7,30.08,NNE,15,2.3,3.2,73,0.00,,---,0.00,VWS V13.01,2013-05-14 04:37:00,
2013-05-14 00:38:00,77.0,67.6,30.08,NNW,330,1.9,4.8,73,0.00,,---,0.00,VWS V13.01,2013-05-14 04:38:00,
2013-05-14 00:39:00,77.1,67.7,30.08,NNE,18,4.5,4.5,73,0.00,,---,0.00,VWS V13.01,2013-05-14 04:39:00,
2013-05-14 00:40:00,77.0,67.6,30.08,NNW,339,0.5,5.4,73,0.00,,---,0.00,VWS V13.01,2013-05-14 04:40:00,
2013-05-14 00:41:00,77.0,67.6,30.08,North,359,1.1,3.3,73,0.00,,---,0.00,VWS V13.01,2013-05-14 04:41:00,
2013-05-14 00:42:00,77.0,67.5,30.08,NNW,343,2.7,4.4,73,0.00,,---,0.00,VWS V13.01,2013-05-14 04:42:00,
2013-05-14 00:43:00,77.0,67.4,30.08,NNW,342,4.3,4.4,72,0.00,,---,0.00,VWS V13.01,2013-05-14 04:43:00,
2013-05-14 00:44:00,77.1,67.6,30.08,North,3,1.2,4.3,72,0.00,,---,0.00,VWS V13.01,2013-05-14 04:44:00,
2013-05-14 00:45:00,77.1,67.6,30.08,North,350,2.4,4.0,72,0.00,,---,0.00,VWS V13.01,2013-05-14 04:45:00,
2013-05-14 00:46:00,77.1,67.5,30.08,NW,325,1.6,5.7,72,0.00,,---,0.00,VWS V13.01,2013-05-14 04:46:00,
2013-05-14 00:47:00,77.2,67.5,30.08,NNW,336,4.5,6.3,72,0.00,,---,0.00,VWS V13.01,2013-05-14 04:47:00,
2013-05-14 00:48:00,77.1,67.4,30.08,North,0,3.4,4.5,72,0.00,,---,0.00,VWS V13.01,2013-05-14 04:48:00,
2013-05-14 00:49:00,77.1,67.3,30.08,North,1,2.8,4.2,72,0.00,,---,0.00,VWS V13.01,2013-05-14 04:49:00,
2013-05-14 00:50:00,77.3,67.4,30.08,North,357,4.0,5.1,72,0.00,,---,0.00,VWS V13.01,2013-05-14 04:50:00,
2013-05-14 00:51:00,77.3,67.3,30.08,NNE,24,2.2,4.0,71,0.00,,---,0.00,VWS V13.01,2013-05-14 04:51:00,
2013-05-14 00:52:00,77.3,67.4,30.08,NNW,330,3.5,3.5,72,0.00,,---,0.00,VWS V13.01,2013-05-14 04:52:00,
2013-05-14 00:53:00,77.4,67.5,30.08,NE,34,1.5,4.0,72,0.00,,---,0.00,VWS V13.01,2013-05-14 04:53:00,
2013-05-14 00:54:00,77.2,67.1,30.08,North,357,2.3,5.5,71,0.00,,---,0.00,VWS V13.01,2013-05-14 04:54:00,
2013-05-14 00:55:00,77.3,67.1,30.08,NNE,14,2.8,5.7,71,0.00,,---,0.00,VWS V13.01,2013-05-14 04:55:00,
2013-05-14 00:56:00,77.3,67.1,30.08,NNE,15,0.7,3.1,71,0.00,,---,0.00,VWS V13.01,2013-05-14 04:56:00,
2013-05-14 00:57:00,77.3,67.1,30.08,North,6,1.1,3.3,71,0.00,,---,0.00,VWS V13.01,2013-05-14 04:57:00,
2013-05-14 00:58:00,77.3,67.0,30.08,North,3,2.9,4.5,71,0.00,,---,0.00,VWS V13.01,2013-05-14 04:58:00,
2013-05-14 00:59:00,77.3,66.8,30.08,North,350,2.4,7.6,70,0.00,,---,0.00,VWS V13.01,2013-05-14 04:59:00,
2013-05-14 01:00:00,77.4,67.0,30.08,NNW,343,1.6,3.5,70,0.00,,---,0.00,VWS V13.01,2013-05-14 05:00:00,
2013-05-14 01:01:00,77.5,67.1,30.08,North,349,1.3,3.1,70,0.00,,---,0.00,VWS V13.01,2013-05-14 05:01:00,
2013-05-14 01:02:00,77.5,67.1,30.08,North,1,3.8,3.8,70,0.00,,---,0.00,VWS V13.01,2013-05-14 05:02:00,
2013-05-14 01:03:00,77.4,66.9,30.08,North,6,1.9,3.9,70,0.00,,---,0.00,VWS V13.01,2013-05-14 05:03:00,
2013-05-14 01:04:00,77.7,67.3,30.08,NNW,340,1.8,2.9,70,0.00,,---,0.00,VWS V13.01,2013-05-14 05:04:00,
2013-05-14 01:05:00,77.5,66.8,30.08,NNW,336,2.7,4.9,70,0.00,,---,0.00,VWS V13.01,2013-05-14 05:05:00,
2013-05-14 01:06:00,77.4,66.8,30.08,NW,315,2.1,3.7,70,0.00,,---,0.00,VWS V13.01,2013-05-14 05:06:00,
2013-05-14 01:07:00,77.5,66.9,30.08,NNW,336,2.0,3.3,70,0.00,,---,0.00,VWS V13.01,2013-05-14 05:07:00,
2013-05-14 01:08:00,77.8,67.2,30.08,North,1,0.9,2.6,70,0.00,,---,0.00,VWS V13.01,2013-05-14 05:08:00,
2013-05-14 01:09:00,77.8,67.2,30.08,NNE,27,2.1,3.0,70,0.00,,---,0.00,VWS V13.01,2013-05-14 05:09:00,
2013-05-14 01:10:00,77.5,66.8,30.08,NNW,329,2.6,4.5,70,0.00,,---,0.00,VWS V13.01,2013-05-14 05:10:00,
2013-05-14 01:11:00,77.5,66.8,30.08,North,7,0.6,3.0,70,0.00,,---,0.00,VWS V13.01,2013-05-14 05:11:00,
2013-05-14 01:12:00,77.4,66.7,30.08,NNW,339,3.7,5.0,70,0.00,,---,0.00,VWS V13.01,2013-05-14 05:12:00,
2013-05-14 01:13:00,77.4,66.7,30.08,NNE,18,3.0,8.5,70,0.00,,---,0.00,VWS V13.01,2013-05-14 05:13:00,
2013-05-14 01:14:00,77.5,66.8,30.08,NNE,13,3.8,3.8,70,0.00,,---,0.00,VWS V13.01,2013-05-14 05:14:00,
2013-05-14 01:15:00,77.3,66.6,30.08,NNW,347,2.5,7.2,70,0.00,,---,0.00,VWS V13.01,2013-05-14 05:15:00,
2013-05-14 01:16:00,77.4,66.7,30.08,NNE,17,3.0,5.0,70,0.00,,---,0.00,VWS V13.01,2013-05-14 05:16:00,
2013-05-14 01:17:00,77.4,66.7,30.08,North,349,3.2,4.1,70,0.00,,---,0.00,VWS V13.01,2013-05-14 05:17:00,
2013-05-14 01:18:00,77.4,66.7,30.08,NE,35,1.2,3.3,70,0.00,,---,0.00,VWS V13.01,2013-05-14 05:18:00,
2013-05-14 01:19:00,77.3,66.6,30.08,NNW,339,1.9,5.0,70,0.00,,---,0.00,VWS V13.01,2013-05-14 05:19:00,
2013-05-14 01:20:00,77.5,66.8,30.08,North,357,2.0,4.0,70,0.00,,---,0.00,VWS V13.01,2013-05-14 05:20:00,
2013-05-14 01:21:00,77.3,66.7,30.08,NNW,332,2.4,5.3,70,0.00,,---,0.00,VWS V13.01,2013-05-14 05:21:00,
2013-05-14 01:22:00,77.5,66.9,30.08,North,3,3.3,3.4,70,0.00,,---,0.00,VWS V13.01,2013-05-14 05:22:00,
2013-05-14 01:23:00,77.4,66.9,30.08,North,352,5.5,5.5,70,0.00,,---,0.00,VWS V13.01,2013-05-14 05:23:00,
2013-05-14 01:24:00,77.4,66.8,30.08,NNE,13,2.0,6.0,70,0.00,,---,0.00,VWS V13.01,2013-05-14 05:24:00,
2013-05-14 01:25:00,77.2,66.7,30.08,NNE,27,1.1,3.2,70,0.00,,---,0.00,VWS V13.01,2013-05-14 05:25:00,
2013-05-14 01:26:00,77.4,66.9,30.08,NE,34,3.6,3.6,70,0.00,,---,0.00,VWS V13.01,2013-05-14 05:26:00,
2013-05-14 01:27:00,77.3,66.8,30.08,NNE,28,1.6,6.3,70,0.00,,---,0.00,VWS V13.01,2013-05-14 05:27:00,
2013-05-14 01:28:00,77.4,66.9,30.08,WNW,297,0.0,3.4,70,0.00,,---,0.00,VWS V13.01,2013-05-14 05:28:00,
2013-05-14 01:29:00,77.2,66.7,30.08,NNE,21,3.1,4.2,70,0.00,,---,0.00,VWS V13.01,2013-05-14 05:29:00,
2013-05-14 01:30:00,77.2,66.7,30.08,NNW,338,2.1,5.1,70,0.00,,---,0.00,VWS V13.01,2013-05-14 05:30:00,
2013-05-14 01:31:00,77.2,66.8,30.07,NE,34,2.0,3.5,70,0.00,,---,0.00,VWS V13.01,2013-05-14 05:31:00,
2013-05-14 01:32:00,77.2,66.8,30.08,NNW,336,1.2,3.0,70,0.00,,---,0.00,VWS V13.01,2013-05-14 05:32:00,
2013-05-14 01:33:00,77.2,66.7,30.08,NNE,30,3.6,4.8,70,0.00,,---,0.00,VWS V13.01,2013-05-14 05:33:00,
2013-05-14 01:34:00,77.1,66.6,30.08,North,4,2.3,5.1,70,0.00,,---,0.00,VWS V13.01,2013-05-14 05:34:00,
2013-05-14 01:35:00,77.2,66.8,30.08,NNW,347,1.1,5.2,70,0.00,,---,0.00,VWS V13.01,2013-05-14 05:35:00,
2013-05-14 01:36:00,77.2,66.8,30.08,NNE,14,6.5,6.5,70,0.00,,---,0.00,VWS V13.01,2013-05-14 05:36:00,
2013-05-14 01:37:00,77.0,66.6,30.08,NNE,18,4.2,6.6,70,0.00,,---,0.00,VWS V13.01,2013-05-14 05:37:00,
2013-05-14 01:38:00,77.1,66.7,30.08,NNW,328,1.4,4.2,70,0.00,,---,0.00,VWS V13.01,2013-05-14 05:38:00,
2013-05-14 01:39:00,77.0,66.6,30.07,North,6,0.8,4.7,70,0.00,,---,0.00,VWS V13.01,2013-05-14 05:39:00,
2013-05-14 01:40:00,77.1,66.8,30.07,NNE,24,2.1,2.1,70,0.00,,---,0.00,VWS V13.01,2013-05-14 05:40:00,
2013-05-14 01:41:00,77.0,66.7,30.07,NNE,32,3.0,3.5,71,0.00,,---,0.00,VWS V13.01,2013-05-14 05:41:00,
2013-05-14 01:42:00,77.0,66.7,30.07,North,8,7.3,7.3,71,0.00,,---,0.00,VWS V13.01,2013-05-14 05:42:00,
2013-05-14 01:43:00,77.0,66.8,30.07,NNE,13,2.9,7.3,71,0.00,,---,0.00,VWS V13.01,2013-05-14 05:43:00,
2013-05-14 01:44:00,77.2,66.9,30.07,NNE,31,1.9,4.4,71,0.00,,---,0.00,VWS V13.01,2013-05-14 05:44:00,
2013-05-14 01:45:00,76.9,66.7,30.07,North,3,2.2,2.4,71,0.00,,---,0.00,VWS V13.01,2013-05-14 05:45:00,
2013-05-14 01:46:00,77.1,66.8,30.07,North,1,4.3,5.8,71,0.00,,---,0.00,VWS V13.01,2013-05-14 05:46:00,
2013-05-14 01:47:00,77.1,66.9,30.07,NNE,15,2.9,5.3,71,0.00,,---,0.00,VWS V13.01,2013-05-14 05:47:00,
2013-05-14 01:48:00,77.0,66.8,30.07,North,359,1.6,3.0,71,0.00,,---,0.00,VWS V13.01,2013-05-14 05:48:00,
2013-05-14 01:49:00,76.8,66.6,30.07,NW,316,2.3,4.0,71,0.00,,---,0.00,VWS V13.01,2013-05-14 05:49:00,
2013-05-14 01:50:00,77.0,66.8,30.07,NNW,329,1.6,4.5,71,0.00,,---,0.00,VWS V13.01,2013-05-14 05:50:00,
2013-05-14 01:51:00,76.9,66.7,30.07,North,0,6.0,6.9,71,0.00,,---,0.00,VWS V13.01,2013-05-14 05:51:00,
2013-05-14 01:52:00,76.7,66.4,30.07,North,7,4.0,6.0,70,0.00,,---,0.00,VWS V13.01,2013-05-14 05:52:00,
2013-05-14 01:53:00,76.9,66.6,30.07,North,357,1.9,4.0,70,0.00,,---,0.00,VWS V13.01,2013-05-14 05:53:00,
2013-05-14 01:54:00,76.9,66.5,30.07,North,6,6.7,8.7,70,0.00,,---,0.00,VWS V13.01,2013-05-14 05:54:00,
2013-05-14 01:55:00,76.9,66.5,30.07,NNW,347,3.6,7.0,70,0.00,,---,0.00,VWS V13.01,2013-05-14 05:55:00,
2013-05-14 01:56:00,76.8,66.4,30.07,NNW,330,1.2,4.7,70,0.00,,---,0.00,VWS V13.01,2013-05-14 05:56:00,
2013-05-14 01:57:00,76.9,66.5,30.07,NNE,15,3.6,6.6,70,0.00,,---,0.00,VWS V13.01,2013-05-14 05:57:00,
2013-05-14 01:58:00,76.7,66.2,30.07,NE,34,5.2,9.6,70,0.00,,---,0.00,VWS V13.01,2013-05-14 05:58:00,
2013-05-14 01:59:00,76.9,66.4,30.07,NW,318,4.5,5.4,70,0.00,,---,0.00,VWS V13.01,2013-05-14 05:59:00,
2013-05-14 02:00:00,77.0,66.4,30.07,NNW,338,2.1,4.7,70,0.00,,---,0.00,VWS V13.01,2013-05-14 06:00:00,
2013-05-14 02:01:00,76.8,66.2,30.07,NNW,347,3.2,5.2,70,0.00,,---,0.00,VWS V13.01,2013-05-14 06:01:00,
2013-05-14 02:02:00,77.0,66.5,30.07,NW,318,1.8,3.2,70,0.00,,---,0.00,VWS V13.01,2013-05-14 06:02:00,
2013-05-14 02:03:00,77.0,66.5,30.07,NNW,342,3.9,5.6,70,0.00,,---,0.00,VWS V13.01,2013-05-14 06:03:00,
2013-05-14 02:04:00,76.9,66.5,30.07,North,353,2.4,6.2,70,0.00,,---,0.00,VWS V13.01,2013-05-14 06:04:00,
2013-05-14 02:05:00,76.9,66.5,30.07,North,353,1.0,3.0,70,0.00,,---,0.00,VWS V13.01,2013-05-14 06:05:00,
2013-05-14 02:06:00,76.8,66.4,30.07,NNE,20,1.6,3.6,70,0.00,,---,0.00,VWS V13.01,2013-05-14 06:06:00,
2013-05-14 02:07:00,76.9,66.5,30.07,NE,55,2.6,3.6,70,0.00,,---,0.00,VWS V13.01,2013-05-14 06:07:00,
2013-05-14 02:08:00,76.8,66.4,30.07,North,356,3.7,4.8,70,0.00,,---,0.00,VWS V13.01,2013-05-14 06:08:00,
2013-05-14 02:09:00,76.9,66.5,30.07,NE,44,4.3,4.3,70,0.00,,---,0.00,VWS V13.01,2013-05-14 06:09:00,
2013-05-14 02:10:00,77.0,66.6,30.07,NNE,22,3.2,4.7,70,0.00,,---,0.00,VWS V13.01,2013-05-14 06:10:00,
2013-05-14 02:11:00,76.8,66.4,30.07,NNE,21,2.3,5.7,70,0.00,,---,0.00,VWS V13.01,2013-05-14 06:11:00,
2013-05-14 02:12:00,76.9,66.5,30.07,North,356,5.3,5.8,70,0.00,,---,0.00,VWS V13.01,2013-05-14 06:12:00,
2013-05-14 02:13:00,76.8,66.4,30.07,North,11,3.2,5.6,70,0.00,,---,0.00,VWS V13.01,2013-05-14 06:13:00,
2013-05-14 02:14:00,76.7,66.3,30.07,NNE,13,4.3,4.5,70,0.00,,---,0.00,VWS V13.01,2013-05-14 06:14:00,
2013-05-14 02:15:00,76.7,66.3,30.07,NNW,330,0.4,4.3,70,0.00,,---,0.00,VWS V13.01,2013-05-14 06:15:00,
2013-05-14 02:16:00,76.9,66.5,30.07,NNE,14,2.4,5.1,70,0.00,,---,0.00,VWS V13.01,2013-05-14 06:16:00,
2013-05-14 02:17:00,76.8,66.5,30.07,West,273,0.9,4.4,70,0.00,,---,0.00,VWS V13.01,2013-05-14 06:17:00,
2013-05-14 02:18:00,76.8,66.5,30.07,North,4,1.4,4.8,71,0.00,,---,0.00,VWS V13.01,2013-05-14 06:18:00,
2013-05-14 02:19:00,76.7,66.5,30.07,North,1,4.4,5.5,71,0.00,,---,0.00,VWS V13.01,2013-05-14 06:19:00,
2013-05-14 02:20:00,76.8,66.6,30.07,North,4,1.6,4.7,71,0.00,,---,0.00,VWS V13.01,2013-05-14 06:20:00,
2013-05-14 02:21:00,76.8,66.5,30.07,NNE,14,3.2,4.4,71,0.00,,---,0.00,VWS V13.01,2013-05-14 06:21:00,
2013-05-14 02:22:00,76.9,66.7,30.07,NNW,328,1.6,4.7,71,0.00,,---,0.00,VWS V13.01,2013-05-14 06:22:00,
2013-05-14 02:23:00,76.7,66.5,30.07,NE,52,1.1,3.9,71,0.00,,---,0.00,VWS V13.01,2013-05-14 06:23:00,
2013-05-14 02:24:00,76.7,66.5,30.07,North,353,2.1,3.5,71,0.00,,---,0.00,VWS V13.01,2013-05-14 06:24:00,
2013-05-14 02:25:00,76.8,66.6,30.07,North,10,1.7,2.6,71,0.00,,---,0.00,VWS V13.01,2013-05-14 06:25:00,
2013-05-14 02:26:00,76.6,66.5,30.07,North,352,0.9,3.5,71,0.00,,---,0.00,VWS V13.01,2013-05-14 06:26:00,
2013-05-14 02:27:00,76.7,66.6,30.07,North,350,0.2,2.4,71,0.00,,---,0.00,VWS V13.01,2013-05-14 06:27:00,
2013-05-14 02:28:00,76.7,66.5,30.07,North,3,4.2,6.8,71,0.00,,---,0.00,VWS V13.01,2013-05-14 06:28:00,
2013-05-14 02:29:00,76.7,66.5,30.07,North,1,2.6,4.2,71,0.00,,---,0.00,VWS V13.01,2013-05-14 06:29:00,
2013-05-14 02:30:00,76.5,66.3,30.07,North,10,2.1,4.4,71,0.00,,---,0.00,VWS V13.01,2013-05-14 06:30:00,
2013-05-14 02:31:00,76.5,66.2,30.07,North,1,2.8,4.9,71,0.00,,---,0.00,VWS V13.01,2013-05-14 06:31:00,
2013-05-14 02:32:00,76.6,66.3,30.07,NNW,339,2.9,5.3,70,0.00,,---,0.00,VWS V13.01,2013-05-14 06:32:00,
2013-05-14 02:33:00,76.8,66.5,30.07,NNW,340,1.3,4.1,70,0.00,,---,0.00,VWS V13.01,2013-05-14 06:33:00,
2013-05-14 02:34:00,76.5,66.2,30.07,North,350,2.9,5.3,70,0.00,,---,0.00,VWS V13.01,2013-05-14 06:34:00,
2013-05-14 02:35:00,76.7,66.3,30.07,NE,38,4.1,10.1,70,0.00,,---,0.00,VWS V13.01,2013-05-14 06:35:00,
2013-05-14 02:36:00,76.6,66.2,30.07,North,7,3.7,7.7,70,0.00,,---,0.00,VWS V13.01,2013-05-14 06:36:00,
2013-05-14 02:37:00,76.5,66.2,30.07,NNE,17,3.4,8.8,70,0.00,,---,0.00,VWS V13.01,2013-05-14 06:37:00,
2013-05-14 02:38:00,76.4,66.0,30.07,North,4,3.3,6.4,70,0.00,,---,0.00,VWS V13.01,2013-05-14 06:38:00,
2013-05-14 02:39:00,76.6,66.2,30.07,NNE,14,3.6,4.8,70,0.00,,---,0.00,VWS V13.01,2013-05-14 06:39:00,
2013-05-14 02:40:00,76.8,66.4,30.07,NNE,25,2.4,6.9,70,0.00,,---,0.00,VWS V13.01,2013-05-14 06:40:00,
2013-05-14 02:41:00,76.7,66.3,30.07,NNE,18,4.8,4.8,70,0.00,,---,0.00,VWS V13.01,2013-05-14 06:41:00,
2013-05-14 02:42:00,76.7,66.3,30.07,NNE,32,8.2,8.2,70,0.00,,---,0.00,VWS V13.01,2013-05-14 06:42:00,
2013-05-14 02:43:00,76.7,66.3,30.07,NNW,346,3.0,8.2,70,0.00,,---,0.00,VWS V13.01,2013-05-14 06:43:00,
2013-05-14 02:44:00,76.7,66.2,30.07,NNW,343,2.8,7.1,70,0.00,,---,0.00,VWS V13.01,2013-05-14 06:44:00,
2013-05-14 02:45:00,76.7,66.2,30.07,NE,37,3.4,3.8,70,0.00,,---,0.00,VWS V13.01,2013-05-14 06:45:00,
2013-05-14 02:46:00,76.6,66.1,30.07,North,4,2.0,10.3,70,0.00,,---,0.00,VWS V13.01,2013-05-14 06:46:00,
2013-05-14 02:47:00,76.8,66.3,30.07,North,357,1.6,5.7,70,0.00,,---,0.00,VWS V13.01,2013-05-14 06:47:00,
2013-05-14 02:48:00,76.6,66.1,30.07,NNE,30,2.3,4.8,70,0.00,,---,0.00,VWS V13.01,2013-05-14 06:48:00,
2013-05-14 02:49:00,76.5,66.1,30.07,NE,42,4.2,5.6,70,0.00,,---,0.00,VWS V13.01,2013-05-14 06:49:00,
2013-05-14 02:50:00,76.7,66.2,30.07,North,356,2.9,5.6,70,0.00,,---,0.00,VWS V13.01,2013-05-14 06:50:00,
2013-05-14 02:51:00,76.8,66.3,30.07,North,10,2.5,6.3,70,0.00,,---,0.00,VWS V13.01,2013-05-14 06:51:00,
2013-05-14 02:52:00,76.5,66.1,30.07,NE,37,3.5,6.2,70,0.00,,---,0.00,VWS V13.01,2013-05-14 06:52:00,
2013-05-14 02:53:00,76.7,66.3,30.07,North,8,3.5,4.0,70,0.00,,---,0.00,VWS V13.01,2013-05-14 06:53:00,
2013-05-14 02:54:00,76.6,66.2,30.07,NNE,31,4.8,7.6,70,0.00,,---,0.00,VWS V13.01,2013-05-14 06:54:00,
2013-05-14 02:55:00,76.6,66.3,30.07,NNE,18,1.7,6.7,70,0.00,,---,0.00,VWS V13.01,2013-05-14 06:55:00,
2013-05-14 02:56:00,76.8,66.4,30.07,NNE,13,1.7,3.7,70,0.00,,---,0.00,VWS V13.01,2013-05-14 06:56:00,
2013-05-14 02:57:00,76.6,66.3,30.07,North,6,2.2,2.5,70,0.00,,---,0.00,VWS V13.01,2013-05-14 06:57:00,
2013-05-14 02:58:00,76.5,66.2,30.07,NE,41,2.3,6.2,71,0.00,,---,0.00,VWS V13.01,2013-05-14 06:58:00,
2013-05-14 02:59:00,76.7,66.4,30.07,North,8,6.5,7.1,70,0.00,,---,0.00,VWS V13.01,2013-05-14 06:59:00,
2013-05-14 03:00:00,76.6,66.2,30.07,NNE,21,2.7,7.5,70,0.00,,---,0.00,VWS V13.01,2013-05-14 07:00:00,
2013-05-14 03:01:00,76.7,66.3,30.07,NNE,20,2.9,4.1,70,0.00,,---,0.00,VWS V13.01,2013-05-14 07:01:00,
2013-05-14 03:02:00,76.6,66.2,30.07,NE,39,1.8,2.9,70,0.00,,---,0.00,VWS V13.01,2013-05-14 07:02:00,
2013-05-14 03:03:00,76.5,66.0,30.07,North,354,2.9,7.0,70,0.00,,---,0.00,VWS V13.01,2013-05-14 07:03:00,
2013-05-14 03:04:00,76.6,66.2,30.07,NNE,18,3.7,4.1,70,0.00,,---,0.00,VWS V13.01,2013-05-14 07:04:00,
2013-05-14 03:05:00,76.8,66.4,30.07,NNW,332,2.1,3.7,70,0.00,,---,0.00,VWS V13.01,2013-05-14 07:05:00,
2013-05-14 03:06:00,76.6,66.2,30.07,NNE,24,5.3,5.4,70,0.00,,---,0.00,VWS V13.01,2013-05-14 07:06:00,
2013-05-14 03:07:00,76.5,66.0,30.07,North,7,4.2,8.3,70,0.00,,---,0.00,VWS V13.01,2013-05-14 07:07:00,
2013-05-14 03:08:00,76.7,66.2,30.07,NNE,30,3.9,6.2,70,0.00,,---,0.00,VWS V13.01,2013-05-14 07:08:00,
2013-05-14 03:09:00,76.5,66.0,30.07,NW,318,1.5,4.5,70,0.00,,---,0.00,VWS V13.01,2013-05-14 07:09:00,
2013-05-14 03:10:00,76.6,66.1,30.07,North,3,2.7,5.0,70,0.00,,---,0.00,VWS V13.01,2013-05-14 07:10:00,
2013-05-14 03:11:00,76.5,66.0,30.07,NNW,330,0.9,6.5,70,0.00,,---,0.00,VWS V13.01,2013-05-14 07:11:00,
2013-05-14 03:12:00,76.4,65.9,30.07,NNW,336,4.2,8.1,70,0.00,,---,0.00,VWS V13.01,2013-05-14 07:12:00,
2013-05-14 03:13:00,76.5,66.0,30.07,NE,41,5.0,6.7,70,0.00,,---,0.00,VWS V13.01,2013-05-14 07:13:00,
2013-05-14 03:14:00,76.4,65.9,30.07,NW,325,2.7,5.0,70,0.00,,---,0.00,VWS V13.01,2013-05-14 07:14:00,
2013-05-14 03:15:00,76.5,65.9,30.07,North,354,4.0,8.1,70,0.00,,---,0.00,VWS V13.01,2013-05-14 07:15:00,
2013-05-14 03:16:00,76.6,66.1,30.07,North,349,2.2,5.5,70,0.00,,---,0.00,VWS V13.01,2013-05-14 07:16:00,
2013-05-14 03:17:00,76.6,66.0,30.07,NNE,30,3.1,5.9,70,0.00,,---,0.00,VWS V13.01,2013-05-14 07:17:00,
2013-05-14 03:18:00,76.7,66.1,30.07,North,359,2.4,5.2,70,0.00,,---,0.00,VWS V13.01,2013-05-14 07:18:00,
2013-05-14 03:19:00,76.5,66.0,30.07,NNW,339,1.9,4.3,70,0.00,,---,0.00,VWS V13.01,2013-05-14 07:19:00,
2013-05-14 03:20:00,76.8,66.3,30.07,NW,316,3.0,4.2,70,0.00,,---,0.00,VWS V13.01,2013-05-14 07:20:00,
2013-05-14 03:21:00,76.8,66.4,30.07,NNE,22,2.7,7.1,70,0.00,,---,0.00,VWS V13.01,2013-05-14 07:21:00,
2013-05-14 03:22:00,76.6,66.2,30.07,NNW,343,1.9,4.7,70,0.00,,---,0.00,VWS V13.01,2013-05-14 07:22:00,
2013-05-14 03:23:00,76.6,66.3,30.07,NNE,27,2.0,2.0,70,0.00,,---,0.00,VWS V13.01,2013-05-14 07:23:00,
2013-05-14 03:24:00,76.5,66.3,30.07,NNE,14,1.2,4.5,71,0.00,,---,0.00,VWS V13.01,2013-05-14 07:24:00,
2013-05-14 03:25:00,76.5,66.4,30.07,NW,325,2.9,5.2,71,0.00,,---,0.00,VWS V13.01,2013-05-14 07:25:00,
2013-05-14 03:26:00,76.4,66.3,30.07,NE,34,5.7,9.1,71,0.00,,---,0.00,VWS V13.01,2013-05-14 07:26:00,
2013-05-14 03:27:00,76.4,66.4,30.07,North,349,1.9,5.7,71,0.00,,---,0.00,VWS V13.01,2013-05-14 07:27:00,
2013-05-14 03:28:00,76.3,66.3,30.07,NE,37,5.4,5.4,71,0.00,,---,0.00,VWS V13.01,2013-05-14 07:28:00,
2013-05-14 03:29:00,76.2,66.2,30.07,NNE,17,4.5,9.8,71,0.00,,---,0.00,VWS V13.01,2013-05-14 07:29:00,
2013-05-14 03:30:00,76.3,66.3,30.07,North,8,4.7,6.8,71,0.00,,---,0.00,VWS V13.01,2013-05-14 07:30:00,
2013-05-14 03:31:00,76.1,66.1,30.07,North,1,4.0,7.3,71,0.00,,---,0.00,VWS V13.01,2013-05-14 07:31:00,
2013-05-14 03:32:00,76.3,66.2,30.07,NNE,14,9.3,9.5,71,0.00,,---,0.00,VWS V13.01,2013-05-14 07:32:00,
2013-05-14 03:33:00,76.1,66.0,30.07,North,10,4.4,9.5,71,0.00,,---,0.00,VWS V13.01,2013-05-14 07:33:00,
2013-05-14 03:34:00,76.4,66.3,30.07,NE,38,2.1,8.3,71,0.00,,---,0.00,VWS V13.01,2013-05-14 07:34:00,
2013-05-14 03:35:00,76.4,66.3,30.07,NNE,21,4.2,9.8,71,0.00,,---,0.00,VWS V13.01,2013-05-14 07:35:00,
2013-05-14 03:36:00,76.4,66.3,30.07,NNW,339,4.0,7.2,71,0.00,,---,0.00,VWS V13.01,2013-05-14 07:36:00,
2013-05-14 03:37:00,76.6,66.5,30.08,NNE,15,4.0,7.5,71,0.00,,---,0.00,VWS V13.01,2013-05-14 07:37:00,
2013-05-14 03:38:00,76.3,66.3,30.07,North,356,2.4,8.5,71,0.00,,---,0.00,VWS V13.01,2013-05-14 07:38:00,
2013-05-14 03:39:00,76.3,66.3,30.07,North,7,3.4,6.0,71,0.00,,---,0.00,VWS V13.01,2013-05-14 07:39:00,
2013-05-14 03:40:00,76.3,66.4,30.07,North,354,2.9,4.4,71,0.00,,---,0.00,VWS V13.01,2013-05-14 07:40:00,
2013-05-14 03:41:00,76.4,66.5,30.07,NNW,342,1.5,8.0,71,0.00,,---,0.00,VWS V13.01,2013-05-14 07:41:00,
2013-05-14 03:42:00,76.2,66.3,30.07,NNW,340,6.0,7.7,72,0.00,,---,0.00,VWS V13.01,2013-05-14 07:42:00,
2013-05-14 03:43:00,76.4,66.5,30.07,North,10,4.3,6.7,72,0.00,,---,0.00,VWS V13.01,2013-05-14 07:43:00,
2013-05-14 03:44:00,76.2,66.4,30.07,North,0,8.0,8.0,72,0.00,,---,0.00,VWS V13.01,2013-05-14 07:44:00,
2013-05-14 03:45:00,76.3,66.5,30.07,NNE,14,5.2,8.7,72,0.00,,---,0.00,VWS V13.01,2013-05-14 07:45:00,
2013-05-14 03:46:00,76.1,66.3,30.07,North,8,6.9,10.2,72,0.00,,---,0.00,VWS V13.01,2013-05-14 07:46:00,
2013-05-14 03:47:00,76.3,66.5,30.07,North,359,5.4,8.6,72,0.00,,---,0.00,VWS V13.01,2013-05-14 07:47:00,
2013-05-14 03:48:00,76.2,66.4,30.07,North,354,4.7,7.2,72,0.00,,---,0.00,VWS V13.01,2013-05-14 07:48:00,
2013-05-14 03:49:00,76.4,66.6,30.07,NNW,338,4.8,7.9,72,0.00,,---,0.00,VWS V13.01,2013-05-14 07:49:00,
2013-05-14 03:50:00,76.5,66.7,30.07,NNE,13,3.2,5.2,72,0.00,,---,0.00,VWS V13.01,2013-05-14 07:50:00,
2013-05-14 03:51:00,76.4,66.6,30.07,NNE,18,7.0,9.7,72,0.00,,---,0.00,VWS V13.01,2013-05-14 07:51:00,
2013-05-14 03:52:00,76.3,66.5,30.07,NNW,346,3.0,7.6,72,0.00,,---,0.00,VWS V13.01,2013-05-14 07:52:00,
2013-05-14 03:53:00,76.4,66.6,30.07,North,8,6.4,9.1,72,0.00,,---,0.00,VWS V13.01,2013-05-14 07:53:00,
2013-05-14 03:54:00,76.2,66.4,30.07,NNE,13,4.2,9.3,72,0.00,,---,0.00,VWS V13.01,2013-05-14 07:54:00,
2013-05-14 03:55:00,76.2,66.4,30.07,North,349,1.2,8.0,72,0.00,,---,0.00,VWS V13.01,2013-05-14 07:55:00,
2013-05-14 03:56:00,76.3,66.5,30.07,NNW,328,2.4,5.8,72,0.00,,---,0.00,VWS V13.01,2013-05-14 07:56:00,
2013-05-14 03:57:00,76.2,66.4,30.07,NW,316,4.2,6.5,72,0.00,,---,0.00,VWS V13.01,2013-05-14 07:57:00,
2013-05-14 03:58:00,76.3,66.5,30.08,NNW,342,0.8,7.1,72,0.00,,---,0.00,VWS V13.01,2013-05-14 07:58:00,
2013-05-14 03:59:00,76.4,66.4,30.08,NNW,343,7.6,7.8,71,0.00,,---,0.00,VWS V13.01,2013-05-14 07:59:00,
2013-05-14 04:00:00,76.4,66.4,30.07,NNE,30,2.2,9.0,71,0.00,,---,0.00,VWS V13.01,2013-05-14 08:00:00,
2013-05-14 04:01:00,76.3,66.3,30.07,NNE,14,2.6,6.6,71,0.00,,---,0.00,VWS V13.01,2013-05-14 08:01:00,
2013-05-14 04:02:00,76.3,66.2,30.07,NW,316,6.4,11.5,71,0.00,,---,0.00,VWS V13.01,2013-05-14 08:02:00,
2013-05-14 04:03:00,76.3,66.1,30.07,NNW,346,7.7,8.8,71,0.00,,---,0.00,VWS V13.01,2013-05-14 08:03:00,
2013-05-14 04:04:00,76.1,65.9,30.07,NNW,339,3.9,10.2,71,0.00,,---,0.00,VWS V13.01,2013-05-14 08:04:00,
2013-05-14 04:05:00,76.3,66.1,30.07,North,4,4.3,9.7,71,0.00,,---,0.00,VWS V13.01,2013-05-14 08:05:00,
2013-05-14 04:06:00,76.1,65.9,30.07,NNW,343,5.5,8.8,71,0.00,,---,0.00,VWS V13.01,2013-05-14 08:06:00,
2013-05-14 04:07:00,76.0,65.8,30.07,North,353,3.1,8.3,71,0.00,,---,0.00,VWS V13.01,2013-05-14 08:07:00,
2013-05-14 04:08:00,76.1,65.8,30.07,NNW,336,4.8,9.3,70,0.00,,---,0.00,VWS V13.01,2013-05-14 08:08:00,
2013-05-14 04:09:00,76.0,65.6,30.07,North,357,8.8,12.1,70,0.00,,---,0.00,VWS V13.01,2013-05-14 08:09:00,
2013-05-14 04:10:00,76.0,65.5,30.07,NNW,340,2.8,8.8,70,0.00,,---,0.00,VWS V13.01,2013-05-14 08:10:00,
2013-05-14 04:11:00,76.2,65.7,30.07,North,4,9.1,10.4,70,0.00,,---,0.00,VWS V13.01,2013-05-14 08:11:00,
2013-05-14 04:12:00,76.0,65.4,30.07,NNE,28,7.1,10.6,70,0.00,,---,0.00,VWS V13.01,2013-05-14 08:12:00,
2013-05-14 04:13:00,76.2,65.6,30.08,NNE,21,5.3,7.1,70,0.00,,---,0.00,VWS V13.01,2013-05-14 08:13:00,
2013-05-14 04:14:00,76.1,65.5,30.07,North,4,9.1,11.5,70,0.00,,---,0.00,VWS V13.01,2013-05-14 08:14:00,
2013-05-14 04:15:00,76.1,65.4,30.07,North,1,6.1,13.9,70,0.00,,---,0.00,VWS V13.01,2013-05-14 08:15:00,
2013-05-14 04:16:00,76.2,65.6,30.07,North,4,2.9,6.1,70,0.00,,---,0.00,VWS V13.01,2013-05-14 08:16:00,
2013-05-14 04:17:00,76.1,65.5,30.08,North,10,2.3,5.7,70,0.00,,---,0.00,VWS V13.01,2013-05-14 08:17:00,
2013-05-14 04:18:00,76.1,65.5,30.07,NNW,338,3.6,6.2,70,0.00,,---,0.00,VWS V13.01,2013-05-14 08:18:00,
2013-05-14 04:19:00,76.1,65.6,30.08,NNW,342,3.9,4.9,70,0.00,,---,0.00,VWS V13.01,2013-05-14 08:19:00,
2013-05-14 04:20:00,75.9,65.3,30.07,NNW,347,4.7,5.9,70,0.00,,---,0.00,VWS V13.01,2013-05-14 08:20:00,
2013-05-14 04:21:00,76.0,65.4,30.08,NNW,345,6.0,8.3,70,0.00,,---,0.00,VWS V13.01,2013-05-14 08:21:00,
2013-05-14 04:22:00,76.0,65.3,30.08,NNW,333,2.4,8.9,69,0.00,,---,0.00,VWS V13.01,2013-05-14 08:22:00,
2013-05-14 04:23:00,76.0,65.2,30.08,North,4,4.5,6.9,69,0.00,,---,0.00,VWS V13.01,2013-05-14 08:23:00,
2013-05-14 04:24:00,76.0,65.3,30.08,NE,42,3.4,5.3,70,0.00,,---,0.00,VWS V13.01,2013-05-14 08:24:00,
2013-05-14 04:25:00,76.1,65.4,30.08,NNW,343,1.4,4.0,70,0.00,,---,0.00,VWS V13.01,2013-05-14 08:25:00,
2013-05-14 04:26:00,76.0,65.2,30.08,North,8,3.2,6.0,69,0.00,,---,0.00,VWS V13.01,2013-05-14 08:26:00,
2013-05-14 04:27:00,75.9,65.1,30.08,NNW,345,7.5,8.0,69,0.00,,---,0.00,VWS V13.01,2013-05-14 08:27:00,
2013-05-14 04:28:00,75.9,65.1,30.08,NE,45,1.5,7.5,69,0.00,,---,0.00,VWS V13.01,2013-05-14 08:28:00,
2013-05-14 04:29:00,76.1,65.3,30.08,North,3,5.7,6.3,69,0.00,,---,0.00,VWS V13.01,2013-05-14 08:29:00,
2013-05-14 04:30:00,76.0,65.1,30.08,NNW,347,3.0,9.6,69,0.00,,---,0.00,VWS V13.01,2013-05-14 08:30:00,
2013-05-14 04:31:00,76.0,65.1,30.08,NNE,25,5.5,12.1,69,0.00,,---,0.00,VWS V13.01,2013-05-14 08:31:00,
2013-05-14 04:32:00,75.9,65.0,30.08,NNE,15,6.6,7.6,69,0.00,,---,0.00,VWS V13.01,2013-05-14 08:32:00,
2013-05-14 04:33:00,75.7,64.8,30.08,NNE,13,6.8,10.1,69,0.00,,---,0.00,VWS V13.01,2013-05-14 08:33:00,
2013-05-14 04:34:00,75.7,64.9,30.08,NNW,333,2.9,6.8,69,0.00,,---,0.00,VWS V13.01,2013-05-14 08:34:00,
2013-05-14 04:35:00,76.1,65.2,30.08,NNE,15,1.9,5.0,69,0.00,,---,0.00,VWS V13.01,2013-05-14 08:35:00,
2013-05-14 04:36:00,75.8,65.0,30.08,North,7,4.3,6.2,69,0.00,,---,0.00,VWS V13.01,2013-05-14 08:36:00,
2013-05-14 04:37:00,76.1,65.3,30.08,North,0,8.1,8.1,69,0.00,,---,0.00,VWS V13.01,2013-05-14 08:37:00,
2013-05-14 04:38:00,75.7,64.8,30.08,North,10,4.7,9.7,69,0.00,,---,0.00,VWS V13.01,2013-05-14 08:38:00,
2013-05-14 04:39:00,75.7,64.8,30.08,North,3,5.7,7.7,69,0.00,,---,0.00,VWS V13.01,2013-05-14 08:39:00,
2013-05-14 04:40:00,75.9,64.9,30.08,NNE,15,5.3,9.4,69,0.00,,---,0.00,VWS V13.01,2013-05-14 08:40:00,
2013-05-14 04:41:00,75.8,64.9,30.08,North,349,4.2,7.3,69,0.00,,---,0.00,VWS V13.01,2013-05-14 08:41:00,
2013-05-14 04:42:00,75.7,64.7,30.08,NNW,338,3.7,6.3,69,0.00,,---,0.00,VWS V13.01,2013-05-14 08:42:00,
2013-05-14 04:43:00,75.7,64.7,30.08,NNW,346,4.5,8.0,69,0.00,,---,0.00,VWS V13.01,2013-05-14 08:43:00,
2013-05-14 04:44:00,75.6,64.6,30.08,NNW,332,4.0,6.8,69,0.00,,---,0.00,VWS V13.01,2013-05-14 08:44:00,
2013-05-14 04:45:00,75.7,64.7,30.08,North,7,3.9,9.5,69,0.00,,---,0.00,VWS V13.01,2013-05-14 08:45:00,
2013-05-14 04:46:00,75.3,64.3,30.08,NNW,345,5.3,7.6,69,0.00,,---,0.00,VWS V13.01,2013-05-14 08:46:00,
2013-05-14 04:47:00,75.6,64.6,30.08,North,356,4.3,9.9,69,0.00,,---,0.00,VWS V13.01,2013-05-14 08:47:00,
2013-05-14 04:48:00,75.6,64.6,30.08,North,1,6.0,6.0,69,0.00,,---,0.00,VWS V13.01,2013-05-14 08:48:00,
2013-05-14 04:49:00,75.5,64.5,30.08,North,354,4.7,8.5,69,0.00,,---,0.00,VWS V13.01,2013-05-14 08:49:00,
2013-05-14 04:50:00,75.4,64.4,30.08,NNE,17,4.2,6.9,69,0.00,,---,0.00,VWS V13.01,2013-05-14 08:50:00,
2013-05-14 04:51:00,75.6,64.6,30.08,North,353,2.3,5.8,69,0.00,,---,0.00,VWS V13.01,2013-05-14 08:51:00,
2013-05-14 04:52:00,75.5,64.5,30.08,North,7,3.5,6.7,69,0.00,,---,0.00,VWS V13.01,2013-05-14 08:52:00,
2013-05-14 04:53:00,75.4,64.4,30.08,North,3,4.2,7.0,69,0.00,,---,0.00,VWS V13.01,2013-05-14 08:53:00,
2013-05-14 04:54:00,75.3,64.3,30.08,NNW,342,7.6,8.6,69,0.00,,---,0.00,VWS V13.01,2013-05-14 08:54:00,
2013-05-14 04:55:00,75.4,64.4,30.08,NNW,328,4.5,8.1,69,0.00,,---,0.00,VWS V13.01,2013-05-14 08:55:00,
2013-05-14 04:56:00,75.4,64.4,30.08,NE,34,4.8,4.8,69,0.00,,---,0.00,VWS V13.01,2013-05-14 08:56:00,
2013-05-14 04:57:00,75.2,64.2,30.08,NNE,14,4.5,6.3,69,0.00,,---,0.00,VWS V13.01,2013-05-14 08:57:00,
2013-05-14 04:58:00,75.4,64.4,30.08,NNE,22,4.9,6.5,69,0.00,,---,0.00,VWS V13.01,2013-05-14 08:58:00,
2013-05-14 04:59:00,75.4,64.4,30.08,NE,42,4.3,7.5,69,0.00,,---,0.00,VWS V13.01,2013-05-14 08:59:00,
2013-05-14 05:00:00,75.3,64.3,30.08,NNW,345,2.4,5.7,69,0.00,,---,0.00,VWS V13.01,2013-05-14 09:00:00,
2013-05-14 05:01:00,75.3,64.3,30.08,NE,51,1.6,3.4,69,0.00,,---,0.00,VWS V13.01,2013-05-14 09:01:00,
2013-05-14 05:02:00,75.2,64.3,30.08,NNE,15,2.4,5.0,69,0.00,,---,0.00,VWS V13.01,2013-05-14 09:02:00,
2013-05-14 05:03:00,75.1,64.1,30.08,NE,46,3.0,7.0,69,0.00,,---,0.00,VWS V13.01,2013-05-14 09:03:00,
2013-05-14 05:04:00,75.3,64.3,30.08,North,356,9.0,9.0,69,0.00,,---,0.00,VWS V13.01,2013-05-14 09:04:00,
2013-05-14 05:05:00,75.0,63.8,30.08,North,349,3.4,9.4,68,0.00,,---,0.00,VWS V13.01,2013-05-14 09:05:00,
2013-05-14 05:06:00,75.1,64.0,30.08,NNW,345,2.7,4.8,68,0.00,,---,0.00,VWS V13.01,2013-05-14 09:06:00,
2013-05-14 05:07:00,75.3,64.2,30.08,ENE,65,1.2,6.8,68,0.00,,---,0.00,VWS V13.01,2013-05-14 09:07:00,
2013-05-14 05:08:00,75.2,64.2,30.08,North,10,2.7,6.9,69,0.00,,---,0.00,VWS V13.01,2013-05-14 09:08:00,
2013-05-14 05:09:00,75.1,64.1,30.08,North,3,7.3,7.8,69,0.00,,---,0.00,VWS V13.01,2013-05-14 09:09:00,
2013-05-14 05:10:00,75.0,64.1,30.08,NNW,339,4.9,7.8,69,0.00,,---,0.00,VWS V13.01,2013-05-14 09:10:00,
2013-05-14 05:11:00,74.9,63.9,30.08,North,11,4.8,8.7,69,0.00,,---,0.00,VWS V13.01,2013-05-14 09:11:00,
2013-05-14 05:12:00,75.0,63.9,30.09,NNW,343,3.9,9.1,68,0.00,,---,0.00,VWS V13.01,2013-05-14 09:12:00,
2013-05-14 05:13:00,75.0,63.9,30.09,North,4,3.0,4.6,68,0.00,,---,0.00,VWS V13.01,2013-05-14 09:13:00,
2013-05-14 05:14:00,75.0,63.9,30.09,North,4,3.9,5.5,68,0.00,,---,0.00,VWS V13.01,2013-05-14 09:14:00,
2013-05-14 05:15:00,75.0,63.9,30.09,North,7,7.8,8.3,68,0.00,,---,0.00,VWS V13.01,2013-05-14 09:15:00,
2013-05-14 05:16:00,75.2,64.1,30.09,North,350,4.5,7.8,68,0.00,,---,0.00,VWS V13.01,2013-05-14 09:16:00,
2013-05-14 05:17:00,75.0,63.8,30.09,North,0,7.0,9.3,68,0.00,,---,0.00,VWS V13.01,2013-05-14 09:17:00,
2013-05-14 05:18:00,74.9,63.6,30.09,NNE,20,6.1,8.6,68,0.00,,---,0.00,VWS V13.01,2013-05-14 09:18:00,
2013-05-14 05:19:00,75.0,63.7,30.09,NNE,32,2.3,7.6,68,0.00,,---,0.00,VWS V13.01,2013-05-14 09:19:00,
2013-05-14 05:20:00,75.1,63.8,30.09,West,281,2.1,4.8,68,0.00,,---,0.00,VWS V13.01,2013-05-14 09:20:00,
2013-05-14 05:21:00,74.9,63.7,30.09,North,4,1.6,3.4,68,0.00,,---,0.00,VWS V13.01,2013-05-14 09:21:00,
2013-05-14 05:22:00,75.1,64.0,30.09,NNE,14,1.2,2.5,68,0.00,,---,0.00,VWS V13.01,2013-05-14 09:22:00,
2013-05-14 05:23:00,75.1,64.0,30.09,NNE,17,1.1,5.5,68,0.00,,---,0.00,VWS V13.01,2013-05-14 09:23:00,
2013-05-14 05:24:00,75.1,64.0,30.09,NNE,15,3.7,5.6,68,0.00,,---,0.00,VWS V13.01,2013-05-14 09:24:00,
2013-05-14 05:25:00,75.1,63.9,30.09,North,6,6.3,8.8,68,0.00,,---,0.00,VWS V13.01,2013-05-14 09:25:00,
2013-05-14 05:26:00,74.9,63.6,30.09,NNE,15,7.1,7.6,68,0.00,,---,0.00,VWS V13.01,2013-05-14 09:26:00,
2013-05-14 05:27:00,75.0,63.7,30.09,North,349,3.3,7.1,68,0.00,,---,0.00,VWS V13.01,2013-05-14 09:27:00,
2013-05-14 05:28:00,75.1,63.9,30.09,NNE,21,2.2,4.9,68,0.00,,---,0.00,VWS V13.01,2013-05-14 09:28:00,
2013-05-14 05:29:00,75.0,63.8,30.09,North,11,2.9,4.3,68,0.00,,---,0.00,VWS V13.01,2013-05-14 09:29:00,
2013-05-14 05:30:00,75.0,63.8,30.09,NE,35,5.3,8.3,68,0.00,,---,0.00,VWS V13.01,2013-05-14 09:30:00,
2013-05-14 05:31:00,75.2,64.0,30.09,NW,321,1.1,6.2,68,0.00,,---,0.00,VWS V13.01,2013-05-14 09:31:00,
2013-05-14 05:32:00,75.2,64.1,30.09,NE,34,4.7,5.0,68,0.00,,---,0.00,VWS V13.01,2013-05-14 09:32:00,
2013-05-14 05:33:00,75.0,63.8,30.09,WNW,294,2.2,6.3,68,0.00,,---,0.00,VWS V13.01,2013-05-14 09:33:00,
2013-05-14 05:34:00,75.1,64.0,30.09,NW,322,2.4,5.1,68,0.00,,---,0.00,VWS V13.01,2013-05-14 09:34:00,
2013-05-14 05:35:00,75.2,64.1,30.09,North,357,2.2,7.0,68,0.00,,---,0.00,VWS V13.01,2013-05-14 09:35:00,
2013-05-14 05:36:00,75.0,63.9,30.09,NNE,13,5.9,7.4,68,0.00,,---,0.00,VWS V13.01,2013-05-14 09:36:00,
2013-05-14 05:37:00,75.0,63.8,30.09,NNW,336,4.2,7.1,68,0.00,,---,0.00,VWS V13.01,2013-05-14 09:37:00,
2013-05-14 05:38:00,75.0,63.7,30.09,NNW,346,5.7,7.9,68,0.00,,---,0.00,VWS V13.01,2013-05-14 09:38:00,
2013-05-14 05:39:00,75.1,63.8,30.09,North,4,2.8,6.3,68,0.00,,---,0.00,VWS V13.01,2013-05-14 09:39:00,
2013-05-14 05:40:00,75.0,63.8,30.09,North,349,2.4,7.9,68,0.00,,---,0.00,VWS V13.01,2013-05-14 09:40:00,
2013-05-14 05:41:00,74.9,63.7,30.09,NW,316,3.3,6.6,68,0.00,,---,0.00,VWS V13.01,2013-05-14 09:41:00,
2013-05-14 05:42:00,75.1,63.9,30.09,NNW,346,2.7,3.4,68,0.00,,---,0.00,VWS V13.01,2013-05-14 09:42:00,
2013-05-14 05:43:00,75.0,63.7,30.09,NNE,15,1.9,4.6,68,0.00,,---,0.00,VWS V13.01,2013-05-14 09:43:00,
2013-05-14 05:44:00,74.9,63.7,30.09,North,3,4.3,6.0,68,0.00,,---,0.00,VWS V13.01,2013-05-14 09:44:00,
2013-05-14 05:45:00,75.0,63.7,30.09,NNW,342,7.8,10.5,68,0.00,,---,0.00,VWS V13.01,2013-05-14 09:45:00,
2013-05-14 05:46:00,74.9,63.5,30.09,NE,39,3.7,9.8,68,0.00,,---,0.00,VWS V13.01,2013-05-14 09:46:00,
2013-05-14 05:47:00,74.9,63.5,30.10,WNW,294,2.2,4.7,68,0.00,,---,0.00,VWS V13.01,2013-05-14 09:47:00,
2013-05-14 05:48:00,74.8,63.4,30.10,North,349,3.7,8.7,68,0.00,,---,0.00,VWS V13.01,2013-05-14 09:48:00,
2013-05-14 05:49:00,74.9,63.5,30.09,NE,45,5.8,6.2,68,0.00,,---,0.00,VWS V13.01,2013-05-14 09:49:00,
2013-05-14 05:50:00,74.8,63.4,30.10,North,350,3.8,7.3,68,0.00,,---,0.00,VWS V13.01,2013-05-14 09:50:00,
2013-05-14 05:51:00,74.8,63.4,30.09,NW,325,2.8,6.6,68,0.00,,---,0.00,VWS V13.01,2013-05-14 09:51:00,
2013-05-14 05:52:00,74.9,63.5,30.09,NW,316,3.4,5.0,68,0.00,,---,0.00,VWS V13.01,2013-05-14 09:52:00,
2013-05-14 05:53:00,74.9,63.5,30.10,NNW,343,1.4,3.8,68,0.00,,---,0.00,VWS V13.01,2013-05-14 09:53:00,
2013-05-14 05:54:00,74.9,63.5,30.10,NNW,335,2.1,5.6,68,0.00,,---,0.00,VWS V13.01,2013-05-14 09:54:00,
2013-05-14 05:55:00,74.7,63.3,30.10,North,4,4.8,5.3,68,0.00,,---,0.00,VWS V13.01,2013-05-14 09:55:00,
2013-05-14 05:56:00,74.9,63.5,30.10,North,356,3.6,4.8,68,0.00,,---,0.00,VWS V13.01,2013-05-14 09:56:00,
2013-05-14 05:57:00,74.6,63.3,30.10,NNE,15,3.7,7.3,68,0.00,,---,0.00,VWS V13.01,2013-05-14 09:57:00,
2013-05-14 05:58:00,74.6,63.2,30.10,NNW,345,4.8,6.8,68,0.00,,---,0.00,VWS V13.01,2013-05-14 09:58:00,
2013-05-14 05:59:00,74.7,63.3,30.10,NNW,342,5.3,8.9,68,0.00,,---,0.00,VWS V13.01,2013-05-14 09:59:00,
2013-05-14 06:00:00,74.7,63.2,30.10,NW,318,4.6,7.1,67,0.00,,---,0.00,VWS V13.01,2013-05-14 10:00:00,
2013-05-14 06:01:00,74.6,63.1,30.10,NNE,25,4.2,6.5,67,0.00,,---,0.00,VWS V13.01,2013-05-14 10:01:00,
2013-05-14 06:02:00,74.4,62.8,30.10,NNW,338,3.4,6.5,67,0.00,,---,0.00,VWS V13.01,2013-05-14 10:02:00,
2013-05-14 06:03:00,74.7,63.1,30.10,North,349,1.9,6.5,67,0.00,,---,0.00,VWS V13.01,2013-05-14 10:03:00,
2013-05-14 06:04:00,74.4,62.9,30.10,North,0,3.6,4.1,67,0.00,,---,0.00,VWS V13.01,2013-05-14 10:04:00,
2013-05-14 06:05:00,74.4,63.0,30.10,NW,315,3.5,6.7,68,0.00,,---,0.00,VWS V13.01,2013-05-14 10:05:00,
2013-05-14 06:06:00,74.5,63.0,30.10,NNE,18,3.6,4.0,68,0.00,,---,0.00,VWS V13.01,2013-05-14 10:06:00,
2013-05-14 06:07:00,74.6,63.1,30.10,North,350,3.5,8.1,68,0.00,,---,0.00,VWS V13.01,2013-05-14 10:07:00,
2013-05-14 06:08:00,74.5,63.1,30.10,NNW,343,1.4,3.5,68,0.00,,---,0.00,VWS V13.01,2013-05-14 10:08:00,
2013-05-14 06:09:00,74.5,63.1,30.10,North,349,4.0,6.1,68,0.00,,---,0.00,VWS V13.01,2013-05-14 10:09:00,
2013-05-14 06:10:00,74.5,63.1,30.10,West,276,4.0,4.7,68,0.00,,---,0.00,VWS V13.01,2013-05-14 10:10:00,
2013-05-14 06:11:00,74.3,62.9,30.10,NNW,347,2.3,6.2,68,0.00,,---,0.00,VWS V13.01,2013-05-14 10:11:00,
2013-05-14 06:12:00,74.5,63.2,30.10,North,1,1.4,4.2,68,0.00,,---,0.00,VWS V13.01,2013-05-14 10:12:00,
2013-05-14 06:13:00,74.5,63.1,30.10,North,0,5.7,5.7,68,0.00,,---,0.00,VWS V13.01,2013-05-14 10:13:00,
2013-05-14 06:14:00,74.1,62.7,30.10,North,353,2.9,5.7,68,0.00,,---,0.00,VWS V13.01,2013-05-14 10:14:00,
2013-05-14 06:15:00,74.3,62.9,30.10,NNW,329,2.2,4.6,68,0.00,,---,0.00,VWS V13.01,2013-05-14 10:15:00,
2013-05-14 06:16:00,74.3,62.8,30.10,NNE,18,6.5,6.5,67,0.00,,---,0.00,VWS V13.01,2013-05-14 10:16:00,
2013-05-14 06:17:00,74.2,62.7,30.10,NW,316,2.1,6.5,67,0.00,,---,0.00,VWS V13.01,2013-05-14 10:17:00,
2013-05-14 06:18:00,74.3,62.8,30.10,North,8,1.5,5.0,67,0.00,,---,0.00,VWS V13.01,2013-05-14 10:18:00,
2013-05-14 06:19:00,74.3,62.8,30.11,NW,319,2.9,5.0,67,0.00,,---,0.00,VWS V13.01,2013-05-14 10:19:00,
2013-05-14 06:20:00,74.2,62.8,30.10,NW,323,2.1,3.2,68,0.00,,---,0.00,VWS V13.01,2013-05-14 10:20:00,
2013-05-14 06:21:00,74.1,62.8,30.10,NNW,347,2.7,3.7,68,0.00,,---,0.00,VWS V13.01,2013-05-14 10:21:00,
2013-05-14 06:22:00,74.4,63.1,30.10,NNW,346,1.9,2.9,68,0.00,,---,0.00,VWS V13.01,2013-05-14 10:22:00,
2013-05-14 06:23:00,74.2,62.8,30.10,North,357,3.7,5.4,68,0.00,,---,0.00,VWS V13.01,2013-05-14 10:23:00,
2013-05-14 06:24:00,74.3,62.9,30.10,NNE,18,2.7,3.7,68,0.00,,---,0.00,VWS V13.01,2013-05-14 10:24:00,
2013-05-14 06:25:00,74.3,62.9,30.10,NNW,339,3.2,4.2,68,0.00,,---,0.00,VWS V13.01,2013-05-14 10:25:00,
2013-05-14 06:26:00,74.1,62.8,30.10,NNW,336,2.1,3.4,68,0.00,,---,0.00,VWS V13.01,2013-05-14 10:26:00,
2013-05-14 06:27:00,74.2,62.9,30.10,NE,56,0.2,3.0,68,0.00,,---,0.00,VWS V13.01,2013-05-14 10:27:00,
2013-05-14 06:28:00,74.1,62.8,30.10,North,10,3.2,4.8,68,0.00,,---,0.00,VWS V13.01,2013-05-14 10:28:00,
2013-05-14 06:29:00,74.2,62.8,30.10,North,7,5.3,8.5,68,0.00,,---,0.00,VWS V13.01,2013-05-14 10:29:00,
2013-05-14 06:30:00,73.9,62.5,30.10,North,356,2.9,8.2,68,0.00,,---,0.00,VWS V13.01,2013-05-14 10:30:00,
2013-05-14 06:31:00,74.1,62.8,30.10,NW,326,3.0,4.2,68,0.00,,---,0.00,VWS V13.01,2013-05-14 10:31:00,
2013-05-14 06:32:00,74.1,62.8,30.10,NNW,345,1.2,4.0,68,0.00,,---,0.00,VWS V13.01,2013-05-14 10:32:00,
2013-05-14 06:33:00,74.0,62.7,30.10,North,350,5.3,5.3,68,0.00,,---,0.00,VWS V13.01,2013-05-14 10:33:00,
2013-05-14 06:34:00,74.0,62.7,30.10,North,10,3.2,5.7,68,0.00,,---,0.00,VWS V13.01,2013-05-14 10:34:00,
2013-05-14 06:35:00,74.0,62.7,30.10,North,357,5.6,7.6,68,0.00,,---,0.00,VWS V13.01,2013-05-14 10:35:00,
2013-05-14 06:36:00,74.0,62.7,30.11,North,4,5.1,5.6,68,0.00,,---,0.00,VWS V13.01,2013-05-14 10:36:00,
2013-05-14 06:37:00,74.0,62.7,30.11,North,349,2.8,6.0,68,0.00,,---,0.00,VWS V13.01,2013-05-14 10:37:00,
2013-05-14 06:38:00,73.9,62.7,30.11,NW,322,2.9,5.0,68,0.00,,---,0.00,VWS V13.01,2013-05-14 10:38:00,
2013-05-14 06:39:00,74.0,62.8,30.11,NNE,25,3.0,3.5,68,0.00,,---,0.00,VWS V13.01,2013-05-14 10:39:00,
2013-05-14 06:40:00,74.0,62.8,30.11,NW,315,0.0,3.1,68,0.00,,---,0.00,VWS V13.01,2013-05-14 10:40:00,
2013-05-14 06:41:00,74.1,63.0,30.11,North,4,3.7,4.7,68,0.00,,---,0.00,VWS V13.01,2013-05-14 10:41:00,
2013-05-14 06:42:00,74.0,62.8,30.11,NNW,339,2.5,5.2,68,0.00,,---,0.00,VWS V13.01,2013-05-14 10:42:00,
2013-05-14 06:43:00,74.0,62.8,30.11,NNW,336,4.3,4.7,68,0.00,,---,0.00,VWS V13.01,2013-05-14 10:43:00,
2013-05-14 06:44:00,73.9,62.6,30.11,North,0,3.6,4.3,68,0.00,,---,0.00,VWS V13.01,2013-05-14 10:44:00,
2013-05-14 06:45:00,74.1,62.9,30.11,North,7,4.5,4.7,68,0.00,,---,0.00,VWS V13.01,2013-05-14 10:45:00,
2013-05-14 06:46:00,74.1,62.8,30.11,NNE,22,1.3,5.5,68,0.00,,---,0.00,VWS V13.01,2013-05-14 10:46:00,
2013-05-14 06:47:00,74.1,62.8,30.11,North,359,2.8,4.0,68,0.00,,---,0.00,VWS V13.01,2013-05-14 10:47:00,
2013-05-14 06:48:00,74.1,62.8,30.11,NNW,336,2.0,2.9,68,0.00,,---,0.00,VWS V13.01,2013-05-14 10:48:00,
2013-05-14 06:49:00,74.1,62.8,30.11,WNW,302,3.0,4.7,68,0.00,,---,0.00,VWS V13.01,2013-05-14 10:49:00,
2013-05-14 06:50:00,74.0,62.6,30.11,NNW,329,5.5,7.5,68,0.00,,---,0.00,VWS V13.01,2013-05-14 10:50:00,
2013-05-14 06:51:00,73.9,62.4,30.11,NNW,333,5.2,7.9,67,0.00,,---,0.00,VWS V13.01,2013-05-14 10:51:00,
2013-05-14 06:52:00,73.9,62.3,30.11,NNW,343,2.3,7.1,67,0.00,,---,0.00,VWS V13.01,2013-05-14 10:52:00,
2013-05-14 06:53:00,73.9,62.3,30.11,North,354,3.3,3.9,67,0.00,,---,0.00,VWS V13.01,2013-05-14 10:53:00,
2013-05-14 06:54:00,73.9,62.4,30.11,NNW,346,1.6,3.3,67,0.00,,---,0.00,VWS V13.01,2013-05-14 10:54:00,
2013-05-14 06:55:00,74.0,62.5,30.11,NNW,343,0.7,2.9,67,0.00,,---,0.00,VWS V13.01,2013-05-14 10:55:00,
2013-05-14 06:56:00,74.0,62.6,30.11,North,0,6.3,6.3,68,0.00,,---,0.00,VWS V13.01,2013-05-14 10:56:00,
2013-05-14 06:57:00,74.0,62.5,30.11,WNW,298,1.1,6.6,67,0.00,,---,0.00,VWS V13.01,2013-05-14 10:57:00,
2013-05-14 06:58:00,73.9,62.4,30.11,NNW,346,5.9,7.1,67,0.00,,---,0.00,VWS V13.01,2013-05-14 10:58:00,
2013-05-14 06:59:00,73.8,62.1,30.12,NNW,345,4.3,9.0,67,0.00,,---,0.00,VWS V13.01,2013-05-14 10:59:00,
2013-05-14 07:00:00,74.0,62.3,30.11,NNW,340,3.4,5.3,67,0.00,,---,0.00,VWS V13.01,2013-05-14 11:00:00,
2013-05-14 07:01:00,73.9,62.1,30.12,NNW,335,3.0,8.0,67,0.00,,---,0.00,VWS V13.01,2013-05-14 11:01:00,
2013-05-14 07:02:00,74.0,62.4,30.12,NNE,28,2.6,5.0,67,0.00,,---,0.00,VWS V13.01,2013-05-14 11:02:00,
2013-05-14 07:03:00,74.0,62.3,30.12,North,4,2.4,4.3,67,0.00,,---,0.00,VWS V13.01,2013-05-14 11:03:00,
2013-05-14 07:04:00,74.0,62.2,30.11,North,4,3.9,7.1,66,0.00,,---,0.00,VWS V13.01,2013-05-14 11:04:00,
2013-05-14 07:05:00,74.1,62.2,30.12,NNW,339,2.4,4.3,66,0.00,,---,0.00,VWS V13.01,2013-05-14 11:05:00,
2013-05-14 07:06:00,74.1,62.3,30.12,NE,37,2.9,4.5,67,0.00,,---,0.00,VWS V13.01,2013-05-14 11:06:00,
2013-05-14 07:07:00,74.1,62.3,30.12,North,352,2.6,2.9,67,0.00,,---,0.00,VWS V13.01,2013-05-14 11:07:00,
2013-05-14 07:08:00,74.0,62.0,30.12,NNE,25,5.8,5.8,66,0.00,,---,0.00,VWS V13.01,2013-05-14 11:08:00,
2013-05-14 07:09:00,74.0,62.1,30.12,North,353,6.7,8.6,66,0.00,,---,0.00,VWS V13.01,2013-05-14 11:09:00,
2013-05-14 07:10:00,74.1,62.1,30.12,NNW,346,2.2,7.1,66,0.00,,---,0.00,VWS V13.01,2013-05-14 11:10:00,
2013-05-14 07:11:00,74.0,61.8,30.12,NNW,340,3.7,8.0,66,0.00,,---,0.00,VWS V13.01,2013-05-14 11:11:00,
2013-05-14 07:12:00,74.0,61.8,30.12,NNW,332,1.9,5.3,66,0.00,,---,0.00,VWS V13.01,2013-05-14 11:12:00,
2013-05-14 07:13:00,74.0,61.8,30.12,North,1,3.1,6.8,66,0.00,,---,0.00,VWS V13.01,2013-05-14 11:13:00,
2013-05-14 07:14:00,74.1,61.9,30.12,NNW,329,2.7,4.2,66,0.00,,---,0.00,VWS V13.01,2013-05-14 11:14:00,
2013-05-14 07:15:00,74.1,61.9,30.12,NNE,14,3.2,7.2,66,0.00,,---,0.00,VWS V13.01,2013-05-14 11:15:00,
2013-05-14 07:16:00,74.1,61.9,30.12,NNE,25,2.7,5.5,66,0.00,,---,0.00,VWS V13.01,2013-05-14 11:16:00,
2013-05-14 07:17:00,74.2,62.0,30.12,North,350,1.6,5.2,66,0.00,,---,0.00,VWS V13.01,2013-05-14 11:17:00,
2013-05-14 07:18:00,74.3,62.1,30.12,North,352,2.4,4.8,66,0.00,,---,0.00,VWS V13.01,2013-05-14 11:18:00,
2013-05-14 07:19:00,74.3,62.1,30.12,NNE,28,2.6,3.5,66,0.00,,---,0.00,VWS V13.01,2013-05-14 11:19:00,
2013-05-14 07:20:00,74.2,61.8,30.12,NNW,336,2.5,9.3,65,0.00,,---,0.00,VWS V13.01,2013-05-14 11:20:00,
2013-05-14 07:21:00,74.2,62.0,30.12,North,353,2.3,4.8,66,0.00,,---,0.00,VWS V13.01,2013-05-14 11:21:00,
2013-05-14 07:22:00,74.3,62.0,30.12,NNW,346,3.9,5.0,65,0.00,,---,0.00,VWS V13.01,2013-05-14 11:22:00,
2013-05-14 07:23:00,74.4,62.2,30.12,NNE,21,4.7,5.3,66,0.00,,---,0.00,VWS V13.01,2013-05-14 11:23:00,
2013-05-14 07:24:00,74.3,62.1,30.12,NNW,347,3.4,6.0,66,0.00,,---,0.00,VWS V13.01,2013-05-14 11:24:00,
2013-05-14 07:25:00,74.4,62.2,30.12,North,357,2.9,4.3,66,0.00,,---,0.00,VWS V13.01,2013-05-14 11:25:00,
2013-05-14 07:26:00,74.3,62.0,30.12,NNE,18,3.3,5.8,65,0.00,,---,0.00,VWS V13.01,2013-05-14 11:26:00,
2013-05-14 07:27:00,74.4,62.1,30.12,NE,38,3.4,4.9,66,0.00,,---,0.00,VWS V13.01,2013-05-14 11:27:00,
2013-05-14 07:28:00,74.5,62.3,30.13,NW,325,3.0,4.5,66,0.00,,---,0.00,VWS V13.01,2013-05-14 11:28:00,
2013-05-14 07:29:00,74.3,62.1,30.12,NNE,15,4.5,5.3,66,0.00,,---,0.00,VWS V13.01,2013-05-14 11:29:00,
2013-05-14 07:30:00,74.5,62.2,30.13,NNE,31,8.6,9.3,66,0.00,,---,0.00,VWS V13.01,2013-05-14 11:30:00,
2013-05-14 07:31:00,74.4,61.7,30.13,North,356,3.7,8.6,64,0.00,,---,0.00,VWS V13.01,2013-05-14 11:31:00,
2013-05-14 07:32:00,74.5,61.9,30.13,North,7,3.0,5.8,65,0.00,,---,0.00,VWS V13.01,2013-05-14 11:32:00,
2013-05-14 07:33:00,74.4,61.8,30.13,NNW,340,2.8,4.4,65,0.00,,---,0.00,VWS V13.01,2013-05-14 11:33:00,
2013-05-14 07:34:00,74.6,61.8,30.13,North,0,5.3,6.7,64,0.00,,---,0.00,VWS V13.01,2013-05-14 11:34:00,
2013-05-14 07:35:00,74.4,61.5,30.13,North,354,3.3,8.5,64,0.00,,---,0.00,VWS V13.01,2013-05-14 11:35:00,
2013-05-14 07:36:00,74.8,62.0,30.13,North,349,2.5,4.5,64,0.00,,---,0.00,VWS V13.01,2013-05-14 11:36:00,
2013-05-14 07:37:00,74.7,61.9,30.13,North,1,4.7,5.6,64,0.00,,---,0.00,VWS V13.01,2013-05-14 11:37:00,
2013-05-14 07:38:00,74.6,61.8,30.13,North,0,3.7,6.3,64,0.00,,---,0.00,VWS V13.01,2013-05-14 11:38:00,
2013-05-14 07:39:00,74.7,61.9,30.13,NNW,338,3.2,6.5,64,0.00,,---,0.00,VWS V13.01,2013-05-14 11:39:00,
2013-05-14 07:40:00,74.6,61.7,30.13,NNW,345,9.1,9.1,64,0.00,,---,0.00,VWS V13.01,2013-05-14 11:40:00,
2013-05-14 07:41:00,74.9,62.0,30.13,NNE,20,7.7,9.1,64,0.00,,---,0.00,VWS V13.01,2013-05-14 11:41:00,
2013-05-14 07:42:00,74.8,61.9,30.13,North,353,3.2,7.7,64,0.00,,---,0.00,VWS V13.01,2013-05-14 11:42:00,
2013-05-14 07:43:00,74.8,62.0,30.13,NW,304,1.4,3.2,64,0.00,,---,0.00,VWS V13.01,2013-05-14 11:43:00,
2013-05-14 07:44:00,74.8,61.6,30.13,WNW,302,5.2,6.6,64,0.00,,---,0.00,VWS V13.01,2013-05-14 11:44:00,
2013-05-14 07:45:00,74.7,61.2,30.13,North,11,4.8,6.7,63,0.00,,---,0.00,VWS V13.01,2013-05-14 11:45:00,
2013-05-14 07:46:00,75.0,61.6,30.13,North,8,3.9,7.6,63,0.00,,---,0.00,VWS V13.01,2013-05-14 11:46:00,
2013-05-14 07:47:00,75.1,61.6,30.13,NNE,13,4.3,5.3,63,0.00,,---,0.00,VWS V13.01,2013-05-14 11:47:00,
2013-05-14 07:48:00,75.1,61.7,30.13,NNE,15,5.3,5.3,63,0.00,,---,0.00,VWS V13.01,2013-05-14 11:48:00,
2013-05-14 07:49:00,75.2,61.7,30.13,NNW,332,4.5,7.0,63,0.00,,---,0.00,VWS V13.01,2013-05-14 11:49:00,
2013-05-14 07:50:00,75.2,61.6,30.13,NW,318,4.0,7.1,63,0.00,,---,0.00,VWS V13.01,2013-05-14 11:50:00,
2013-05-14 07:51:00,75.1,61.4,30.13,North,7,3.1,7.8,62,0.00,,---,0.00,VWS V13.01,2013-05-14 11:51:00,
2013-05-14 07:52:00,75.3,61.7,30.13,North,354,3.4,7.3,63,0.00,,---,0.00,VWS V13.01,2013-05-14 11:52:00,
2013-05-14 07:53:00,75.4,61.5,30.13,NNW,330,9.3,11.9,62,0.00,,---,0.00,VWS V13.01,2013-05-14 11:53:00,
2013-05-14 07:54:00,75.4,61.5,30.13,North,354,7.3,9.3,62,0.00,,---,0.00,VWS V13.01,2013-05-14 11:54:00,
2013-05-14 07:55:00,75.3,61.1,30.13,NE,41,6.6,10.5,61,0.00,,---,0.00,VWS V13.01,2013-05-14 11:55:00,
2013-05-14 07:56:00,75.4,61.4,30.13,North,6,3.0,8.9,62,0.00,,---,0.00,VWS V13.01,2013-05-14 11:56:00,
2013-05-14 07:57:00,75.7,61.6,30.13,NE,48,7.5,8.3,62,0.00,,---,0.00,VWS V13.01,2013-05-14 11:57:00,
2013-05-14 07:58:00,75.7,61.5,30.13,North,6,2.9,10.3,61,0.00,,---,0.00,VWS V13.01,2013-05-14 11:58:00,
2013-05-14 07:59:00,75.7,61.5,30.13,ENE,66,5.8,8.5,61,0.00,,---,0.00,VWS V13.01,2013-05-14 11:59:00,
2013-05-14 08:00:00,75.8,61.5,30.13,NNE,30,10.7,10.7,61,0.00,,---,0.00,VWS V13.01,2013-05-14 12:00:00,
2013-05-14 08:01:00,75.7,61.2,30.13,North,357,3.7,10.7,61,0.00,,---,0.00,VWS V13.01,2013-05-14 12:01:00,
2013-05-14 08:02:00,75.7,61.5,30.13,NNW,333,3.7,7.5,61,0.00,,---,0.00,VWS V13.01,2013-05-14 12:02:00,
2013-05-14 08:03:00,75.8,61.6,30.13,North,356,5.7,7.5,62,0.00,,---,0.00,VWS V13.01,2013-05-14 12:03:00,
2013-05-14 08:04:00,75.8,61.5,30.13,NNW,342,2.2,10.3,61,0.00,,---,0.00,VWS V13.01,2013-05-14 12:04:00,
2013-05-14 08:05:00,76.0,61.8,30.13,NNW,339,4.9,9.1,62,0.00,,---,0.00,VWS V13.01,2013-05-14 12:05:00,
2013-05-14 08:06:00,75.9,61.7,30.13,North,353,7.3,12.7,61,0.00,,---,0.00,VWS V13.01,2013-05-14 12:06:00,
2013-05-14 08:07:00,76.1,61.7,30.14,NNE,13,5.4,15.5,61,0.00,,---,0.00,VWS V13.01,2013-05-14 12:07:00,
2013-05-14 08:08:00,76.1,61.8,30.13,NNE,13,7.8,10.0,61,0.00,,---,0.00,VWS V13.01,2013-05-14 12:08:00,
2013-05-14 08:09:00,76.1,61.7,30.14,North,352,6.8,10.1,61,0.00,,---,0.00,VWS V13.01,2013-05-14 12:09:00,
2013-05-14 08:10:00,75.9,61.4,30.14,North,349,8.6,10.7,61,0.00,,---,0.00,VWS V13.01,2013-05-14 12:10:00,
2013-05-14 08:11:00,76.0,61.5,30.14,NNE,27,9.6,12.1,61,0.00,,---,0.00,VWS V13.01,2013-05-14 12:11:00,
2013-05-14 08:12:00,75.9,61.6,30.14,NNW,330,3.2,9.6,61,0.00,,---,0.00,VWS V13.01,2013-05-14 12:12:00,
2013-05-14 08:13:00,75.6,61.4,30.14,North,354,5.7,11.2,61,0.00,,---,0.00,VWS V13.01,2013-05-14 12:13:00,
2013-05-14 08:14:00,75.8,61.7,30.14,NNW,339,3.1,8.4,62,0.00,,---,0.00,VWS V13.01,2013-05-14 12:14:00,
2013-05-14 08:15:00,75.9,62.0,30.14,NNW,343,2.9,9.5,62,0.00,,---,0.00,VWS V13.01,2013-05-14 12:15:00,
2013-05-14 08:16:00,75.8,62.0,30.14,North,357,4.2,9.3,62,0.00,,---,0.00,VWS V13.01,2013-05-14 12:16:00,
2013-05-14 08:17:00,76.0,62.2,30.14,NNE,13,4.1,12.2,62,0.00,,---,0.00,VWS V13.01,2013-05-14 12:17:00,
2013-05-14 08:18:00,76.1,62.3,30.14,North,349,6.3,10.4,62,0.00,,---,0.00,VWS V13.01,2013-05-14 12:18:00,
2013-05-14 08:19:00,76.1,62.0,30.14,North,1,4.7,9.1,62,0.00,,---,0.00,VWS V13.01,2013-05-14 12:19:00,
2013-05-14 08:20:00,76.1,62.3,30.14,NNE,18,6.7,8.1,62,0.00,,---,0.00,VWS V13.01,2013-05-14 12:20:00,
2013-05-14 08:21:00,76.2,62.4,30.14,NNW,333,2.7,8.6,62,0.00,,---,0.00,VWS V13.01,2013-05-14 12:21:00,
2013-05-14 08:22:00,76.1,61.9,30.13,North,0,9.7,9.7,62,0.00,,---,0.00,VWS V13.01,2013-05-14 12:22:00,
2013-05-14 08:23:00,76.3,62.3,30.14,North,357,6.2,9.7,62,0.00,,---,0.00,VWS V13.01,2013-05-14 12:23:00,
2013-05-14 08:24:00,76.3,62.2,30.14,NW,319,6.5,9.1,62,0.00,,---,0.00,VWS V13.01,2013-05-14 12:24:00,
2013-05-14 08:25:00,76.3,62.3,30.14,North,4,2.4,9.6,62,0.00,,---,0.00,VWS V13.01,2013-05-14 12:25:00,
2013-05-14 08:26:00,76.3,62.0,30.14,North,6,6.3,12.4,61,0.00,,---,0.00,VWS V13.01,2013-05-14 12:26:00,
2013-05-14 08:27:00,76.3,61.6,30.14,NNW,347,6.5,10.5,60,0.00,,---,0.00,VWS V13.01,2013-05-14 12:27:00,
2013-05-14 08:28:00,76.5,62.0,30.14,NNW,345,4.5,7.3,61,0.00,,---,0.00,VWS V13.01,2013-05-14 12:28:00,
2013-05-14 08:29:00,76.6,62.2,30.14,North,354,6.3,6.8,61,0.00,,---,0.00,VWS V13.01,2013-05-14 12:29:00,
2013-05-14 08:30:00,76.5,61.9,30.14,NE,53,4.9,11.5,61,0.00,,---,0.00,VWS V13.01,2013-05-14 12:30:00,
2013-05-14 08:31:00,76.8,62.1,30.14,NNE,20,6.6,10.7,60,0.00,,---,0.00,VWS V13.01,2013-05-14 12:31:00,
2013-05-14 08:32:00,76.9,62.2,30.14,North,350,6.9,9.3,60,0.00,,---,0.00,VWS V13.01,2013-05-14 12:32:00,
2013-05-14 08:33:00,77.1,62.4,30.14,North,8,4.3,6.9,60,0.00,,---,0.00,VWS V13.01,2013-05-14 12:33:00,
2013-05-14 08:34:00,76.9,62.1,30.14,North,10,10.2,11.2,60,0.00,,---,0.00,VWS V13.01,2013-05-14 12:34:00,
2013-05-14 08:35:00,76.9,62.0,30.14,North,350,9.2,10.8,60,0.00,,---,0.00,VWS V13.01,2013-05-14 12:35:00,
2013-05-14 08:36:00,76.8,62.0,30.14,NNE,22,7.3,9.6,60,0.00,,---,0.00,VWS V13.01,2013-05-14 12:36:00,
2013-05-14 08:37:00,76.9,61.9,30.14,NW,321,7.8,7.8,60,0.00,,---,0.00,VWS V13.01,2013-05-14 12:37:00,
2013-05-14 08:38:00,76.9,62.2,30.14,North,1,5.6,7.8,60,0.00,,---,0.00,VWS V13.01,2013-05-14 12:38:00,
2013-05-14 08:39:00,76.9,61.9,30.14,NE,34,11.6,11.9,60,0.00,,---,0.00,VWS V13.01,2013-05-14 12:39:00,
2013-05-14 08:40:00,76.8,61.7,30.14,North,11,6.2,13.0,60,0.00,,---,0.00,VWS V13.01,2013-05-14 12:40:00,
2013-05-14 08:41:00,76.8,61.5,30.14,NE,44,4.8,12.1,59,0.00,,---,0.00,VWS V13.01,2013-05-14 12:41:00,
2013-05-14 08:42:00,76.9,61.8,30.14,NNW,339,7.4,7.4,60,0.00,,---,0.00,VWS V13.01,2013-05-14 12:42:00,
2013-05-14 08:43:00,77.0,62.2,30.14,NE,44,3.0,9.5,60,0.00,,---,0.00,VWS V13.01,2013-05-14 12:43:00,
2013-05-14 08:44:00,77.2,62.2,30.14,NNW,346,6.2,8.8,60,0.00,,---,0.00,VWS V13.01,2013-05-14 12:44:00,
2013-05-14 08:45:00,77.1,62.0,30.14,North,353,8.1,9.4,60,0.00,,---,0.00,VWS V13.01,2013-05-14 12:45:00,
2013-05-14 08:46:00,76.9,61.6,30.14,NNW,342,10.7,14.0,59,0.00,,---,0.00,VWS V13.01,2013-05-14 12:46:00,
2013-05-14 08:47:00,76.8,61.6,30.14,North,6,3.6,12.4,60,0.00,,---,0.00,VWS V13.01,2013-05-14 12:47:00,
2013-05-14 08:48:00,76.8,61.5,30.15,NNE,31,4.8,14.8,59,0.00,,---,0.00,VWS V13.01,2013-05-14 12:48:00,
2013-05-14 08:49:00,77.0,62.0,30.15,North,356,7.0,10.9,60,0.00,,---,0.00,VWS V13.01,2013-05-14 12:49:00,
2013-05-14 08:50:00,77.0,61.5,30.15,North,352,7.3,12.7,59,0.00,,---,0.00,VWS V13.01,2013-05-14 12:50:00,
2013-05-14 08:51:00,77.0,61.2,30.15,NW,326,5.9,10.4,58,0.00,,---,0.00,VWS V13.01,2013-05-14 12:51:00,
2013-05-14 08:52:00,77.0,61.5,30.15,North,3,12.1,12.1,59,0.00,,---,0.00,VWS V13.01,2013-05-14 12:52:00,
2013-05-14 08:53:00,77.0,61.3,30.14,North,7,7.9,14.1,58,0.00,,---,0.00,VWS V13.01,2013-05-14 12:53:00,
2013-05-14 08:54:00,76.9,61.3,30.15,NE,34,4.3,11.1,59,0.00,,---,0.00,VWS V13.01,2013-05-14 12:54:00,
2013-05-14 08:55:00,77.0,61.5,30.15,NNE,24,2.9,10.3,59,0.00,,---,0.00,VWS V13.01,2013-05-14 12:55:00,
2013-05-14 08:56:00,77.0,61.3,30.15,NNE,15,5.7,9.3,58,0.00,,---,0.00,VWS V13.01,2013-05-14 12:56:00,
2013-05-14 08:57:00,77.2,61.6,30.14,North,356,8.6,10.9,59,0.00,,---,0.00,VWS V13.01,2013-05-14 12:57:00,
2013-05-14 08:58:00,77.1,61.6,30.15,North,350,3.4,8.6,59,0.00,,---,0.00,VWS V13.01,2013-05-14 12:58:00,
2013-05-14 08:59:00,77.3,61.9,30.15,NNW,340,4.7,7.7,59,0.00,,---,0.00,VWS V13.01,2013-05-14 12:59:00,
2013-05-14 09:00:00,77.2,61.8,30.15,North,349,5.9,8.3,59,0.00,,---,0.00,VWS V13.01,2013-05-14 13:00:00,
2013-05-14 09:01:00,77.1,61.5,30.15,North,7,4.7,12.5,59,0.00,,---,0.00,VWS V13.01,2013-05-14 13:01:00,
2013-05-14 09:02:00,77.2,61.3,30.15,NNE,20,3.7,9.8,58,0.00,,---,0.00,VWS V13.01,2013-05-14 13:02:00,
2013-05-14 09:03:00,77.4,61.8,30.15,NNW,342,9.3,9.3,59,0.00,,---,0.00,VWS V13.01,2013-05-14 13:03:00,
2013-05-14 09:04:00,77.3,61.7,30.15,NE,48,6.2,9.4,59,0.00,,---,0.00,VWS V13.01,2013-05-14 13:04:00,
2013-05-14 09:05:00,77.5,61.6,30.15,NNE,17,2.8,6.8,58,0.00,,---,0.00,VWS V13.01,2013-05-14 13:05:00,
2013-05-14 09:06:00,77.4,61.2,30.15,North,349,4.0,9.6,58,0.00,,---,0.00,VWS V13.01,2013-05-14 13:06:00,
2013-05-14 09:07:00,77.7,61.8,30.15,NNE,18,4.5,8.6,58,0.00,,---,0.00,VWS V13.01,2013-05-14 13:07:00,
2013-05-14 09:08:00,77.7,61.8,30.15,NNW,347,5.7,9.8,58,0.00,,---,0.00,VWS V13.01,2013-05-14 13:08:00,
2013-05-14 09:09:00,77.8,61.2,30.15,North,8,9.8,10.4,57,0.00,,---,0.00,VWS V13.01,2013-05-14 13:09:00,
2013-05-14 09:10:00,77.4,60.5,30.15,NW,322,4.3,9.8,56,0.00,,---,0.00,VWS V13.01,2013-05-14 13:10:00,
2013-05-14 09:11:00,77.7,61.4,30.15,North,0,4.6,9.6,57,0.00,,---,0.00,VWS V13.01,2013-05-14 13:11:00,
2013-05-14 09:12:00,77.5,60.9,30.15,NNE,24,3.6,7.7,57,0.00,,---,0.00,VWS V13.01,2013-05-14 13:12:00,
2013-05-14 09:13:00,77.7,61.3,30.15,NNW,346,4.3,8.5,57,0.00,,---,0.00,VWS V13.01,2013-05-14 13:13:00,
2013-05-14 09:14:00,77.4,61.0,30.15,NNE,27,7.1,9.3,57,0.00,,---,0.00,VWS V13.01,2013-05-14 13:14:00,
2013-05-14 09:15:00,77.7,61.4,30.15,North,10,7.8,11.4,57,0.00,,---,0.00,VWS V13.01,2013-05-14 13:15:00,
2013-05-14 09:16:00,77.8,61.6,30.15,North,1,3.7,7.8,57,0.00,,---,0.00,VWS V13.01,2013-05-14 13:16:00,
2013-05-14 09:17:00,77.9,61.9,30.15,North,359,11.0,12.8,58,0.00,,---,0.00,VWS V13.01,2013-05-14 13:17:00,
2013-05-14 09:18:00,77.5,61.3,30.15,North,0,8.7,11.9,57,0.00,,---,0.00,VWS V13.01,2013-05-14 13:18:00,
2013-05-14 09:19:00,77.8,61.5,30.15,NW,325,5.3,11.6,57,0.00,,---,0.00,VWS V13.01,2013-05-14 13:19:00,
2013-05-14 09:20:00,77.8,61.8,30.15,NE,34,3.7,6.6,58,0.00,,---,0.00,VWS V13.01,2013-05-14 13:20:00,
2013-05-14 09:21:00,78.0,62.3,30.15,NNW,342,4.4,7.8,58,0.00,,---,0.00,VWS V13.01,2013-05-14 13:21:00,
2013-05-14 09:22:00,78.0,61.8,30.15,North,352,6.6,8.9,58,0.00,,---,0.00,VWS V13.01,2013-05-14 13:22:00,
2013-05-14 09:23:00,78.0,61.4,30.15,North,6,5.9,9.4,57,0.00,,---,0.00,VWS V13.01,2013-05-14 13:23:00,
2013-05-14 09:24:00,78.2,61.7,30.15,NNW,333,4.9,12.0,57,0.00,,---,0.00,VWS V13.01,2013-05-14 13:24:00,
2013-05-14 09:25:00,77.8,61.1,30.15,NE,41,5.5,13.0,56,0.00,,---,0.00,VWS V13.01,2013-05-14 13:25:00,
2013-05-14 09:26:00,78.1,61.5,30.15,NNW,346,5.3,9.8,57,0.00,,---,0.00,VWS V13.01,2013-05-14 13:26:00,
2013-05-14 09:27:00,77.9,61.0,30.15,NNE,30,9.8,10.7,56,0.00,,---,0.00,VWS V13.01,2013-05-14 13:27:00,
2013-05-14 09:28:00,78.0,61.4,30.15,NNE,25,4.6,9.8,57,0.00,,---,0.00,VWS V13.01,2013-05-14 13:28:00,
2013-05-14 09:29:00,78.1,61.7,30.15,North,354,3.2,5.3,57,0.00,,---,0.00,VWS V13.01,2013-05-14 13:29:00,
2013-05-14 09:30:00,78.3,61.9,30.15,NE,48,2.4,5.2,57,0.00,,---,0.00,VWS V13.01,2013-05-14 13:30:00,
2013-05-14 09:31:00,78.2,61.3,30.16,NNW,336,7.3,12.4,56,0.00,,---,0.00,VWS V13.01,2013-05-14 13:31:00,
2013-05-14 09:32:00,78.1,61.2,30.15,NNE,17,7.2,13.6,56,0.00,,---,0.00,VWS V13.01,2013-05-14 13:32:00,
2013-05-14 09:33:00,78.2,61.4,30.16,NNW,346,5.3,11.1,56,0.00,,---,0.00,VWS V13.01,2013-05-14 13:33:00,
2013-05-14 09:34:00,78.2,61.6,30.16,North,353,3.4,8.6,57,0.00,,---,0.00,VWS V13.01,2013-05-14 13:34:00,
2013-05-14 09:35:00,78.4,61.7,30.16,NE,38,4.5,12.1,56,0.00,,---,0.00,VWS V13.01,2013-05-14 13:35:00,
2013-05-14 09:36:00,78.3,61.7,30.15,North,8,7.5,10.6,57,0.00,,---,0.00,VWS V13.01,2013-05-14 13:36:00,
2013-05-14 09:37:00,78.4,61.8,30.15,NNW,335,6.6,9.8,57,0.00,,---,0.00,VWS V13.01,2013-05-14 13:37:00,
2013-05-14 09:38:00,78.5,62.1,30.15,NNE,24,10.2,10.6,57,0.00,,---,0.00,VWS V13.01,2013-05-14 13:38:00,
2013-05-14 09:39:00,78.3,61.6,30.15,North,1,7.1,12.7,56,0.00,,---,0.00,VWS V13.01,2013-05-14 13:39:00,
2013-05-14 09:40:00,78.5,61.9,30.15,ENE,65,6.4,9.1,57,0.00,,---,0.00,VWS V13.01,2013-05-14 13:40:00,
2013-05-14 09:41:00,78.8,62.4,30.15,NNE,15,8.6,9.6,57,0.00,,---,0.00,VWS V13.01,2013-05-14 13:41:00,
2013-05-14 09:42:00,78.7,62.1,30.16,NNW,340,6.1,9.9,57,0.00,,---,0.00,VWS V13.01,2013-05-14 13:42:00,
2013-05-14 09:43:00,78.8,62.2,30.16,North,352,8.1,10.7,57,0.00,,---,0.00,VWS V13.01,2013-05-14 13:43:00,
2013-05-14 09:44:00,78.8,61.3,30.16,North,0,4.3,10.3,55,0.00,,---,0.00,VWS V13.01,2013-05-14 13:44:00,
2013-05-14 09:45:00,79.0,61.9,30.16,NNE,20,2.4,5.5,56,0.00,,---,0.00,VWS V13.01,2013-05-14 13:45:00,
2013-05-14 09:46:00,78.8,61.2,30.16,North,8,3.4,9.4,55,0.00,,---,0.00,VWS V13.01,2013-05-14 13:46:00,
2013-05-14 09:47:00,78.8,61.3,30.16,North,1,10.3,11.2,55,0.00,,---,0.00,VWS V13.01,2013-05-14 13:47:00,
2013-05-14 09:48:00,78.7,61.7,30.16,North,3,1.9,10.6,56,0.00,,---,0.00,VWS V13.01,2013-05-14 13:48:00,
2013-05-14 09:49:00,78.5,61.5,30.16,NNW,345,7.4,11.1,56,0.00,,---,0.00,VWS V13.01,2013-05-14 13:49:00,
2013-05-14 09:50:00,78.7,61.3,30.16,NNW,347,5.7,12.5,55,0.00,,---,0.00,VWS V13.01,2013-05-14 13:50:00,
2013-05-14 09:51:00,78.8,61.7,30.16,North,357,9.7,12.3,56,0.00,,---,0.00,VWS V13.01,2013-05-14 13:51:00,
2013-05-14 09:52:00,78.5,61.5,30.16,NNE,20,8.2,11.0,56,0.00,,---,0.00,VWS V13.01,2013-05-14 13:52:00,
2013-05-14 09:53:00,78.4,61.6,30.16,NNE,18,10.6,15.0,56,0.00,,---,0.00,VWS V13.01,2013-05-14 13:53:00,
2013-05-14 09:54:00,78.2,61.1,30.16,North,1,5.5,10.7,56,0.00,,---,0.00,VWS V13.01,2013-05-14 13:54:00,
2013-05-14 09:55:00,78.5,61.6,30.16,NE,44,8.1,8.6,56,0.00,,---,0.00,VWS V13.01,2013-05-14 13:55:00,
2013-05-14 09:56:00,78.4,61.5,30.16,NE,42,7.5,11.9,56,0.00,,---,0.00,VWS V13.01,2013-05-14 13:56:00,
2013-05-14 10:06:00,78.1,59.9,30.16,North,349,6.6,8.8,54,0.00,,---,0.00,VWS V13.01,2013-05-14 14:06:00,
2013-05-14 10:11:00,78.1,61.2,30.16,North,4,9.8,9.8,56,0.00,,---,0.00,VWS V13.01,2013-05-14 14:11:00,
2013-05-14 10:16:00,78.0,60.5,30.16,NNE,17,6.6,7.5,55,0.00,,---,0.00,VWS V13.01,2013-05-14 14:16:00,
2013-05-14 10:21:00,78.3,60.9,30.16,North,11,5.3,11.4,55,0.00,,---,0.00,VWS V13.01,2013-05-14 14:21:00,
2013-05-14 10:26:00,78.4,61.1,30.16,NNE,15,7.1,9.4,55,0.00,,---,0.00,VWS V13.01,2013-05-14 14:26:00,
2013-05-14 10:32:00,78.9,61.3,30.16,NNE,27,9.3,9.3,55,0.00,,---,0.00,VWS V13.01,2013-05-14 14:32:00,
2013-05-14 10:37:00,78.8,61.1,30.16,NW,322,8.0,11.6,55,0.00,,---,0.00,VWS V13.01,2013-05-14 14:37:00,
2013-05-14 10:42:00,78.7,61.1,30.17,NW,319,5.3,9.2,55,0.00,,---,0.00,VWS V13.01,2013-05-14 14:42:00,
2013-05-14 10:45:00,78.7,60.5,30.17,North,6,7.8,12.1,54,0.00,,---,0.00,VWS V13.01,2013-05-14 14:45:00,
2013-05-14 10:46:00,78.9,60.9,30.17,North,349,3.9,9.1,54,0.00,,---,0.00,VWS V13.01,2013-05-14 14:46:00,
2013-05-14 10:47:00,79.0,61.2,30.17,North,0,8.0,11.9,54,0.00,,---,0.00,VWS V13.01,2013-05-14 14:47:00,
2013-05-14 10:48:00,78.8,60.8,30.17,NNE,15,4.8,8.6,54,0.00,,---,0.00,VWS V13.01,2013-05-14 14:48:00,
2013-05-14 10:49:00,78.9,60.7,30.17,North,0,10.6,16.6,54,0.00,,---,0.00,VWS V13.01,2013-05-14 14:49:00,
2013-05-14 10:50:00,79.0,60.8,30.17,NNW,340,4.2,13.6,54,0.00,,---,0.00,VWS V13.01,2013-05-14 14:50:00,
2013-05-14 10:51:00,78.8,60.3,30.17,NW,326,7.8,13.7,53,0.00,,---,0.00,VWS V13.01,2013-05-14 14:51:00,
2013-05-14 10:52:00,78.9,61.2,30.17,North,7,3.7,11.1,55,0.00,,---,0.00,VWS V13.01,2013-05-14 14:52:00,
2013-05-14 10:53:00,78.8,60.9,30.17,NNE,20,4.6,11.4,54,0.00,,---,0.00,VWS V13.01,2013-05-14 14:53:00,
2013-05-14 10:54:00,79.1,61.4,30.17,NW,319,7.0,10.8,55,0.00,,---,0.00,VWS V13.01,2013-05-14 14:54:00,
2013-05-14 10:55:00,79.2,61.5,30.17,North,356,7.5,8.7,55,0.00,,---,0.00,VWS V13.01,2013-05-14 14:55:00,
2013-05-14 10:56:00,79.2,61.1,30.17,North,4,11.2,11.2,54,0.00,,---,0.00,VWS V13.01,2013-05-14 14:56:00,
2013-05-14 10:57:00,78.8,59.7,30.18,NNE,17,8.3,12.7,52,0.00,,---,0.00,VWS V13.01,2013-05-14 14:57:00,
2013-05-14 10:58:00,78.9,60.3,30.18,NNW,335,5.8,9.5,53,0.00,,---,0.00,VWS V13.01,2013-05-14 14:58:00,
2013-05-14 10:59:00,78.8,60.2,30.18,NNE,24,6.6,13.6,53,0.00,,---,0.00,VWS V13.01,2013-05-14 14:59:00,
2013-05-14 11:00:00,78.7,60.5,30.18,NNE,24,6.1,13.2,54,0.00,,---,0.00,VWS V13.01,2013-05-14 15:00:00,
2013-05-14 11:01:00,78.9,60.4,30.18,NW,321,7.1,13.0,53,0.00,,---,0.00,VWS V13.01,2013-05-14 15:01:00,
2013-05-14 11:02:00,78.5,60.5,30.17,NNE,30,9.8,13.6,54,0.00,,---,0.00,VWS V13.01,2013-05-14 15:02:00,
2013-05-14 11:03:00,78.5,60.8,30.17,NNE,15,8.3,12.6,54,0.00,,---,0.00,VWS V13.01,2013-05-14 15:03:00,
2013-05-14 11:04:00,78.8,60.7,30.17,NNE,14,8.2,10.3,54,0.00,,---,0.00,VWS V13.01,2013-05-14 15:04:00,
2013-05-14 11:05:00,78.8,60.6,30.18,NNW,336,5.5,12.3,54,0.00,,---,0.00,VWS V13.01,2013-05-14 15:05:00,
2013-05-14 11:06:00,79.0,60.7,30.17,NNW,342,1.9,5.5,54,0.00,,---,0.00,VWS V13.01,2013-05-14 15:06:00,
2013-05-14 11:07:00,79.0,60.4,30.17,North,11,4.5,9.7,53,0.00,,---,0.00,VWS V13.01,2013-05-14 15:07:00,
2013-05-14 11:08:00,79.2,60.0,30.17,North,353,5.0,9.7,52,0.00,,---,0.00,VWS V13.01,2013-05-14 15:08:00,
2013-05-14 11:09:00,79.3,60.9,30.17,North,357,5.3,8.0,53,0.00,,---,0.00,VWS V13.01,2013-05-14 15:09:00,
2013-05-14 11:10:00,79.4,60.6,30.17,NNW,328,5.9,7.8,53,0.00,,---,0.00,VWS V13.01,2013-05-14 15:10:00,
2013-05-14 11:11:00,79.4,59.9,30.17,NNW,340,7.9,9.3,51,0.00,,---,0.00,VWS V13.01,2013-05-14 15:11:00,
2013-05-14 11:12:00,79.4,60.3,30.17,North,352,3.8,9.8,52,0.00,,---,0.00,VWS V13.01,2013-05-14 15:12:00,
2013-05-14 11:13:00,79.5,60.0,30.17,NNW,339,2.6,8.3,51,0.00,,---,0.00,VWS V13.01,2013-05-14 15:13:00,
2013-05-14 11:14:00,79.3,59.6,30.18,NNE,24,7.0,12.4,51,0.00,,---,0.00,VWS V13.01,2013-05-14 15:14:00,
2013-05-14 11:15:00,79.2,59.5,30.18,North,350,7.8,16.2,51,0.00,,---,0.00,VWS V13.01,2013-05-14 15:15:00,
2013-05-14 11:16:00,79.1,60.1,30.18,NNE,18,10.1,14.3,52,0.00,,---,0.00,VWS V13.01,2013-05-14 15:16:00,
2013-05-14 11:17:00,79.0,60.4,30.18,NW,318,6.4,11.4,53,0.00,,---,0.00,VWS V13.01,2013-05-14 15:17:00,
2013-05-14 11:18:00,79.1,60.3,30.18,North,359,7.4,11.1,53,0.00,,---,0.00,VWS V13.01,2013-05-14 15:18:00,
2013-05-14 11:19:00,79.1,60.2,30.18,North,352,10.0,10.5,52,0.00,,---,0.00,VWS V13.01,2013-05-14 15:19:00,
2013-05-14 11:20:00,78.9,60.0,30.18,NNW,338,6.5,11.3,52,0.00,,---,0.00,VWS V13.01,2013-05-14 15:20:00,
2013-05-14 11:21:00,79.0,60.5,30.18,NE,49,4.0,9.6,53,0.00,,---,0.00,VWS V13.01,2013-05-14 15:21:00,
2013-05-14 11:22:00,79.3,60.6,30.18,NE,52,5.5,7.6,53,0.00,,---,0.00,VWS V13.01,2013-05-14 15:22:00,
2013-05-14 11:23:00,79.2,60.7,30.18,North,354,9.6,13.7,53,0.00,,---,0.00,VWS V13.01,2013-05-14 15:23:00,
2013-05-14 11:24:00,79.2,60.6,30.18,North,349,10.4,14.4,53,0.00,,---,0.00,VWS V13.01,2013-05-14 15:24:00,
2013-05-14 11:25:00,78.8,60.6,30.18,NNE,28,13.6,13.6,54,0.00,,---,0.00,VWS V13.01,2013-05-14 15:25:00,
2013-05-14 11:26:00,78.8,60.5,30.18,NNE,30,12.7,13.6,54,0.00,,---,0.00,VWS V13.01,2013-05-14 15:26:00,
2013-05-14 11:27:00,79.1,60.8,30.17,NNW,329,4.4,14.7,54,0.00,,---,0.00,VWS V13.01,2013-05-14 15:27:00,
2013-05-14 11:28:00,79.3,61.2,30.17,NNW,339,5.3,7.4,54,0.00,,---,0.00,VWS V13.01,2013-05-14 15:28:00,
2013-05-14 11:29:00,79.1,60.9,30.18,North,6,9.7,11.6,54,0.00,,---,0.00,VWS V13.01,2013-05-14 15:29:00,
2013-05-14 11:30:00,78.9,59.4,30.18,NNW,343,7.3,13.0,51,0.00,,---,0.00,VWS V13.01,2013-05-14 15:30:00,
2013-05-14 11:31:00,79.2,59.7,30.18,North,3,7.7,9.6,51,0.00,,---,0.00,VWS V13.01,2013-05-14 15:31:00,
2013-05-14 11:32:00,79.2,60.2,30.18,NE,49,9.6,15.1,52,0.00,,---,0.00,VWS V13.01,2013-05-14 15:32:00,
2013-05-14 11:33:00,79.0,60.3,30.18,NNE,15,7.6,13.1,53,0.00,,---,0.00,VWS V13.01,2013-05-14 15:33:00,
2013-05-14 11:34:00,79.1,60.4,30.18,NNW,345,7.0,9.6,53,0.00,,---,0.00,VWS V13.01,2013-05-14 15:34:00,
2013-05-14 11:35:00,79.0,60.1,30.18,NNW,335,5.3,10.8,52,0.00,,---,0.00,VWS V13.01,2013-05-14 15:35:00,
2013-05-14 11:36:00,79.1,60.6,30.18,North,349,7.2,13.8,53,0.00,,---,0.00,VWS V13.01,2013-05-14 15:36:00,
2013-05-14 11:37:00,78.8,59.8,30.18,NNE,15,7.6,10.5,52,0.00,,---,0.00,VWS V13.01,2013-05-14 15:37:00,
2013-05-14 11:38:00,78.9,59.8,30.18,NNE,22,6.4,10.3,52,0.00,,---,0.00,VWS V13.01,2013-05-14 15:38:00,
2013-05-14 11:48:00,78.9,60.3,30.18,NNW,328,4.5,7.8,53,0.00,,---,0.00,VWS V13.01,2013-05-14 15:48:00,
2013-05-14 11:53:00,79.2,59.5,30.18,East,79,7.8,11.5,51,0.00,,---,0.00,VWS V13.01,2013-05-14 15:53:00,
2013-05-14 11:58:00,79.3,60.4,30.18,NNE,21,5.1,10.3,52,0.00,,---,0.00,VWS V13.01,2013-05-14 15:58:00,
2013-05-14 12:03:00,79.5,59.5,30.17,NE,52,5.8,11.8,50,0.00,,---,0.00,VWS V13.01,2013-05-14 16:03:00,
2013-05-14 12:08:00,79.8,60.0,30.17,NNW,336,7.2,7.2,51,0.00,,---,0.00,VWS V13.01,2013-05-14 16:08:00,
2013-05-14 12:13:00,79.9,59.5,30.17,North,7,8.0,8.0,50,0.00,,---,0.00,VWS V13.01,2013-05-14 16:13:00,
2013-05-14 12:18:00,80.1,60.4,30.17,NNW,335,6.2,10.3,51,0.00,,---,0.00,VWS V13.01,2013-05-14 16:18:00,
2013-05-14 12:23:00,79.8,60.0,30.17,NE,45,5.7,7.5,51,0.00,,---,0.00,VWS V13.01,2013-05-14 16:23:00,
2013-05-14 12:28:00,79.8,60.1,30.17,North,7,6.3,6.3,51,0.00,,---,0.00,VWS V13.01,2013-05-14 16:28:00,
2013-05-14 12:33:00,79.8,59.1,30.17,NNE,30,6.0,8.2,49,0.00,,---,0.00,VWS V13.01,2013-05-14 16:33:00,
2013-05-14 12:38:00,79.7,59.0,30.17,NNW,347,6.0,9.3,49,0.00,,---,0.00,VWS V13.01,2013-05-14 16:38:00,
2013-05-14 12:44:00,79.4,58.5,30.17,NNE,30,10.7,10.7,49,0.00,,---,0.00,VWS V13.01,2013-05-14 16:44:00,
2013-05-14 12:49:00,79.2,58.4,30.17,NNE,22,6.7,10.6,49,0.00,,---,0.00,VWS V13.01,2013-05-14 16:49:00,
2013-05-14 12:54:00,79.7,59.3,30.17,ENE,65,5.9,10.4,50,0.00,,---,0.00,VWS V13.01,2013-05-14 16:54:00,
2013-05-14 12:59:00,79.5,58.6,30.17,North,4,9.1,13.5,49,0.00,,---,0.00,VWS V13.01,2013-05-14 16:59:00,
2013-05-14 13:04:00,79.4,59.8,30.17,NNE,20,3.2,9.6,51,0.00,,---,0.00,VWS V13.01,2013-05-14 17:04:00,
2013-05-14 13:09:00,80.3,60.2,30.17,NE,37,3.2,6.1,50,0.00,,---,0.00,VWS V13.01,2013-05-14 17:09:00,
2013-05-14 13:14:00,80.3,60.5,30.17,NE,39,8.3,9.6,51,0.00,,---,0.00,VWS V13.01,2013-05-14 17:14:00,
2013-05-14 13:19:00,79.7,59.3,30.17,North,357,3.4,11.1,50,0.00,,---,0.00,VWS V13.01,2013-05-14 17:19:00,
2013-05-14 13:24:00,79.9,59.4,30.16,ENE,62,5.2,11.0,50,0.00,,---,0.00,VWS V13.01,2013-05-14 17:24:00,
2013-05-14 13:29:00,79.3,59.1,30.17,NNE,31,5.6,12.4,50,0.00,,---,0.00,VWS V13.01,2013-05-14 17:29:00,
2013-05-14 13:34:00,79.4,60.3,30.16,NNE,24,3.4,9.7,52,0.00,,---,0.00,VWS V13.01,2013-05-14 17:34:00,
2013-05-14 13:39:00,78.9,59.1,30.16,NE,44,9.1,13.4,51,0.00,,---,0.00,VWS V13.01,2013-05-14 17:39:00,
2013-05-14 13:44:00,79.0,60.0,30.16,NNE,21,7.8,10.1,52,0.00,,---,0.00,VWS V13.01,2013-05-14 17:44:00,
2013-05-14 13:49:00,78.9,60.7,30.16,NNE,21,3.3,8.2,54,0.00,,---,0.00,VWS V13.01,2013-05-14 17:49:00,
2013-05-14 13:54:00,79.1,59.9,30.16,NNE,21,8.9,12.6,52,0.00,,---,0.00,VWS V13.01,2013-05-14 17:54:00,
2013-05-14 13:59:00,79.4,60.6,30.16,NNE,22,7.1,8.6,53,0.00,,---,0.00,VWS V13.01,2013-05-14 17:59:00,
2013-05-14 14:04:00,79.3,60.7,30.15,NNE,17,6.2,12.2,53,0.00,,---,0.00,VWS V13.01,2013-05-14 18:04:00,
2013-05-14 14:09:00,79.4,61.4,30.15,North,11,6.1,6.1,54,0.00,,---,0.00,VWS V13.01,2013-05-14 18:09:00,
2013-05-14 14:14:00,79.7,59.3,30.15,North,353,4.1,4.5,50,0.00,,---,0.00,VWS V13.01,2013-05-14 18:14:00,
2013-05-14 14:19:00,79.2,60.3,30.15,NNW,347,8.0,8.5,52,0.00,,---,0.00,VWS V13.01,2013-05-14 18:19:00,
2013-05-14 14:24:00,79.2,60.5,30.15,North,352,7.7,7.7,53,0.00,,---,0.00,VWS V13.01,2013-05-14 18:24:00,
2013-05-14 14:29:00,78.8,59.3,30.15,NNE,17,5.6,7.1,51,0.00,,---,0.00,VWS V13.01,2013-05-14 18:29:00,
2013-05-14 14:34:00,78.7,59.6,30.15,NNE,27,3.9,5.8,52,0.00,,---,0.00,VWS V13.01,2013-05-14 18:34:00,
2013-05-14 14:39:00,78.9,59.3,30.15,NNW,346,9.1,9.1,51,0.00,,---,0.00,VWS V13.01,2013-05-14 18:39:00,
2013-05-14 14:44:00,79.1,59.4,30.15,NNW,345,5.1,8.4,51,0.00,,---,0.00,VWS V13.01,2013-05-14 18:44:00,
2013-05-14 14:49:00,79.3,60.0,30.14,North,352,8.4,9.3,52,0.00,,---,0.00,VWS V13.01,2013-05-14 18:49:00,
2013-05-14 14:54:00,79.1,59.0,30.14,North,359,13.1,13.1,50,0.00,,---,0.00,VWS V13.01,2013-05-14 18:54:00,
2013-05-14 14:59:00,79.0,59.5,30.14,North,7,9.9,10.0,51,0.00,,---,0.00,VWS V13.01,2013-05-14 18:59:00,
2013-05-14 15:04:00,79.3,59.4,30.14,NNE,28,6.7,12.3,51,0.00,,---,0.00,VWS V13.01,2013-05-14 19:04:00,
2013-05-14 15:09:00,79.7,61.0,30.13,North,11,11.7,13.5,53,0.00,,---,0.00,VWS V13.01,2013-05-14 19:09:00,
2013-05-14 15:14:00,78.7,60.4,30.13,North,6,6.6,11.6,53,0.00,,---,0.00,VWS V13.01,2013-05-14 19:14:00,
2013-05-14 15:19:00,79.2,59.9,30.13,North,356,5.2,8.6,52,0.00,,---,0.00,VWS V13.01,2013-05-14 19:19:00,
2013-05-14 15:24:00,79.3,60.8,30.13,NE,34,3.4,9.3,53,0.00,,---,0.00,VWS V13.01,2013-05-14 19:24:00,
2013-05-14 15:30:00,79.5,59.6,30.13,NE,37,3.0,7.9,51,0.00,,---,0.00,VWS V13.01,2013-05-14 19:30:00,
2013-05-14 15:35:00,79.3,60.0,30.13,North,357,4.5,10.7,52,0.00,,---,0.00,VWS V13.01,2013-05-14 19:35:00,
2013-05-14 15:40:00,79.1,61.2,30.13,NNE,17,9.6,12.0,54,0.00,,---,0.00,VWS V13.01,2013-05-14 19:40:00,
2013-05-14 15:45:00,78.9,60.2,30.13,NE,39,6.8,9.0,53,0.00,,---,0.00,VWS V13.01,2013-05-14 19:45:00,
2013-05-14 15:50:00,79.0,60.6,30.13,North,352,10.7,10.7,53,0.00,,---,0.00,VWS V13.01,2013-05-14 19:50:00,
2013-05-14 15:55:00,78.8,59.8,30.13,ENE,60,9.1,13.2,52,0.00,,---,0.00,VWS V13.01,2013-05-14 19:55:00,
2013-05-14 16:00:00,79.1,59.3,30.13,NNW,328,8.9,8.9,51,0.00,,---,0.00,VWS V13.01,2013-05-14 20:00:00,
2013-05-14 16:05:00,79.1,59.4,30.13,NE,34,9.0,11.0,51,0.00,,---,0.00,VWS V13.01,2013-05-14 20:05:00,
2013-05-14 16:10:00,78.5,58.7,30.12,NE,45,10.2,11.7,51,0.00,,---,0.00,VWS V13.01,2013-05-14 20:10:00,
2013-05-14 16:15:00,78.7,58.8,30.12,North,7,5.4,11.5,50,0.00,,---,0.00,VWS V13.01,2013-05-14 20:15:00,
2013-05-14 16:20:00,79.1,58.9,30.12,NNE,28,6.6,8.7,50,0.00,,---,0.00,VWS V13.01,2013-05-14 20:20:00,
2013-05-14 16:25:00,79.3,58.2,30.12,NE,45,12.6,12.6,48,0.00,,---,0.00,VWS V13.01,2013-05-14 20:25:00,
2013-05-14 16:30:00,79.1,58.6,30.12,North,354,6.5,10.3,50,0.00,,---,0.00,VWS V13.01,2013-05-14 20:30:00,
2013-05-14 16:35:00,79.2,59.1,30.12,NE,34,8.3,8.9,50,0.00,,---,0.00,VWS V13.01,2013-05-14 20:35:00,
2013-05-14 16:40:00,79.3,58.9,30.12,NE,34,7.5,10.9,50,0.00,,---,0.00,VWS V13.01,2013-05-14 20:40:00,
2013-05-14 16:45:00,79.0,59.4,30.12,NNE,21,8.9,13.3,51,0.00,,---,0.00,VWS V13.01,2013-05-14 20:45:00,
2013-05-14 16:50:00,78.5,59.5,30.12,North,349,6.6,13.1,52,0.00,,---,0.00,VWS V13.01,2013-05-14 20:50:00,
2013-05-14 16:55:00,78.1,59.2,30.12,North,349,6.0,8.4,52,0.00,,---,0.00,VWS V13.01,2013-05-14 20:55:00,
2013-05-14 17:00:00,78.4,59.5,30.12,North,7,9.3,9.3,52,0.00,,---,0.00,VWS V13.01,2013-05-14 21:00:00,
2013-05-14 17:05:00,78.2,58.9,30.12,NE,34,2.8,5.8,52,0.00,,---,0.00,VWS V13.01,2013-05-14 21:05:00,
2013-05-14 17:10:00,78.3,58.4,30.12,NE,42,10.7,10.7,50,0.00,,---,0.00,VWS V13.01,2013-05-14 21:10:00,
2013-05-14 17:15:00,78.9,58.1,30.12,North,357,7.3,9.8,49,0.00,,---,0.00,VWS V13.01,2013-05-14 21:15:00,
2013-05-14 17:20:00,78.8,59.0,30.12,ENE,66,5.9,6.8,51,0.00,,---,0.00,VWS V13.01,2013-05-14 21:20:00,
2013-05-14 17:25:00,78.4,58.9,30.12,North,10,8.7,9.8,51,0.00,,---,0.00,VWS V13.01,2013-05-14 21:25:00,
2013-05-14 17:30:00,78.2,57.8,30.12,NNE,25,5.3,11.9,50,0.00,,---,0.00,VWS V13.01,2013-05-14 21:30:00,
2013-05-14 17:35:00,78.1,59.3,30.12,NE,49,4.7,6.8,52,0.00,,---,0.00,VWS V13.01,2013-05-14 21:35:00,
2013-05-14 17:40:00,78.3,58.9,30.12,NNE,27,10.6,10.6,51,0.00,,---,0.00,VWS V13.01,2013-05-14 21:40:00,
2013-05-14 17:45:00,77.7,59.0,30.12,NE,45,6.2,6.6,52,0.00,,---,0.00,VWS V13.01,2013-05-14 21:45:00,
2013-05-14 17:50:00,78.0,59.3,30.12,NNE,14,5.1,7.8,53,0.00,,---,0.00,VWS V13.01,2013-05-14 21:50:00,
2013-05-14 17:55:00,77.7,58.5,30.12,NE,51,7.9,12.1,52,0.00,,---,0.00,VWS V13.01,2013-05-14 21:55:00,
2013-05-14 18:00:00,77.3,59.4,30.12,NE,48,5.4,7.2,54,0.00,,---,0.00,VWS V13.01,2013-05-14 22:00:00,
2013-05-14 18:05:00,77.5,58.8,30.12,NE,34,5.8,9.2,53,0.00,,---,0.00,VWS V13.01,2013-05-14 22:05:00,
2013-05-14 18:10:00,77.8,59.0,30.12,NE,38,4.9,10.1,52,0.00,,---,0.00,VWS V13.01,2013-05-14 22:10:00,
2013-05-14 18:16:00,77.9,58.1,30.12,NW,319,4.9,9.1,51,0.00,,---,0.00,VWS V13.01,2013-05-14 22:16:00,
2013-05-14 18:21:00,77.5,58.2,30.12,NNE,28,4.9,9.3,51,0.00,,---,0.00,VWS V13.01,2013-05-14 22:21:00,
2013-05-14 18:26:00,77.1,58.3,30.12,North,10,4.3,9.1,52,0.00,,---,0.00,VWS V13.01,2013-05-14 22:26:00,
2013-05-14 18:31:00,77.4,58.4,30.12,North,10,6.4,9.5,52,0.00,,---,0.00,VWS V13.01,2013-05-14 22:31:00,
2013-05-14 18:36:00,77.1,58.8,30.12,NNE,30,5.0,6.8,53,0.00,,---,0.00,VWS V13.01,2013-05-14 22:36:00,
2013-05-14 18:41:00,77.2,58.8,30.12,North,356,4.9,7.4,53,0.00,,---,0.00,VWS V13.01,2013-05-14 22:41:00,
2013-05-14 18:46:00,76.8,57.7,30.13,NNE,24,9.3,9.3,52,0.00,,---,0.00,VWS V13.01,2013-05-14 22:46:00,
2013-05-14 18:51:00,76.6,57.4,30.13,NE,35,2.2,4.6,52,0.00,,---,0.00,VWS V13.01,2013-05-14 22:51:00,
2013-05-14 18:56:00,76.6,57.2,30.13,NNE,21,8.9,10.9,51,0.00,,---,0.00,VWS V13.01,2013-05-14 22:56:00,
2013-05-14 19:01:00,76.7,57.2,30.13,NNE,31,5.0,5.9,51,0.00,,---,0.00,VWS V13.01,2013-05-14 23:01:00,
2013-05-14 19:06:00,76.4,56.3,30.13,North,0,6.2,8.5,50,0.00,,---,0.00,VWS V13.01,2013-05-14 23:06:00,
2013-05-14 19:11:00,76.8,56.9,30.13,NNE,22,4.4,4.7,50,0.00,,---,0.00,VWS V13.01,2013-05-14 23:11:00,
2013-05-14 19:16:00,76.5,56.8,30.13,NNE,13,7.1,8.6,50,0.00,,---,0.00,VWS V13.01,2013-05-14 23:16:00,
2013-05-14 19:21:00,76.4,55.8,30.13,North,359,5.0,8.4,49,0.00,,---,0.00,VWS V13.01,2013-05-14 23:21:00,
2013-05-14 19:26:00,76.4,56.7,30.13,NW,319,2.8,4.9,50,0.00,,---,0.00,VWS V13.01,2013-05-14 23:26:00,
2013-05-14 19:31:00,76.2,57.7,30.13,NE,37,6.8,10.1,53,0.00,,---,0.00,VWS V13.01,2013-05-14 23:31:00,
2013-05-14 19:36:00,75.9,57.8,30.13,NE,41,3.8,8.9,54,0.00,,---,0.00,VWS V13.01,2013-05-14 23:36:00,
2013-05-14 19:41:00,75.8,58.1,30.13,NE,39,2.9,5.2,54,0.00,,---,0.00,VWS V13.01,2013-05-14 23:41:00,
2013-05-14 19:46:00,75.7,58.2,30.13,North,352,3.3,5.3,54,0.00,,---,0.00,VWS V13.01,2013-05-14 23:46:00,
2013-05-14 19:51:00,75.5,58.1,30.13,North,4,2.0,2.2,55,0.00,,---,0.00,VWS V13.01,2013-05-14 23:51:00,
2013-05-14 19:56:00,75.2,57.8,30.13,NNE,22,2.0,2.0,55,0.00,,---,0.00,VWS V13.01,2013-05-14 23:56:00,
2013-05-14 20:01:00,75.2,58.0,30.13,NE,34,2.5,2.6,55,0.00,,---,0.00,VWS V13.01,2013-05-15 00:01:00,
2013-05-14 20:06:00,74.8,57.3,30.13,NNW,347,6.5,7.0,54,0.00,,---,0.00,VWS V13.01,2013-05-15 00:06:00,
2013-05-14 20:11:00,75.1,58.0,30.13,NNE,31,7.6,7.6,55,0.00,,---,0.00,VWS V13.01,2013-05-15 00:11:00,
2013-05-14 20:16:00,75.1,57.8,30.13,NNE,22,3.4,7.8,55,0.00,,---,0.00,VWS V13.01,2013-05-15 00:16:00,
2013-05-14 20:21:00,74.9,57.7,30.14,NNE,22,4.8,7.6,55,0.00,,---,0.00,VWS V13.01,2013-05-15 00:21:00,
2013-05-14 20:27:00,74.8,57.5,30.14,NNW,345,4.7,4.7,55,0.00,,---,0.00,VWS V13.01,2013-05-15 00:27:00,
2013-05-14 20:32:00,74.9,57.0,30.14,NNW,345,4.7,6.3,54,0.00,,---,0.00,VWS V13.01,2013-05-15 00:32:00,
2013-05-14 20:37:00,74.8,57.1,30.14,North,11,4.5,5.2,54,0.00,,---,0.00,VWS V13.01,2013-05-15 00:37:00,
2013-05-14 20:42:00,74.6,57.1,30.14,NNE,22,6.3,7.1,54,0.00,,---,0.00,VWS V13.01,2013-05-15 00:42:00,
2013-05-14 20:47:00,74.7,57.6,30.14,NNE,22,3.7,4.8,55,0.00,,---,0.00,VWS V13.01,2013-05-15 00:47:00,
2013-05-14 20:52:00,74.7,57.5,30.14,NNE,17,7.1,9.8,55,0.00,,---,0.00,VWS V13.01,2013-05-15 00:52:00,
2013-05-14 21:57:00,74.2,58.3,30.16,NNE,27,4.5,4.6,58,0.00,,---,0.00,VWS V13.01,2013-05-15 01:57:00,
2013-05-14 22:02:00,74.1,58.3,30.17,NNE,21,5.3,5.3,58,0.00,,---,0.00,VWS V13.01,2013-05-15 02:02:00,
2013-05-14 22:07:00,74.3,58.0,30.17,NNE,28,2.4,5.5,57,0.00,,---,0.00,VWS V13.01,2013-05-15 02:07:00,
2013-05-14 22:13:00,74.2,58.0,30.17,NE,51,2.9,5.7,57,0.00,,---,0.00,VWS V13.01,2013-05-15 02:13:00,
2013-05-14 22:18:00,74.2,57.8,30.17,North,356,1.3,3.7,56,0.00,,---,0.00,VWS V13.01,2013-05-15 02:18:00,
2013-05-14 22:23:00,74.1,58.2,30.18,NNW,346,2.4,3.7,58,0.00,,---,0.00,VWS V13.01,2013-05-15 02:23:00,
2013-05-14 22:24:00,74.2,58.3,30.17,North,3,0.4,3.2,58,0.00,,---,0.00,VWS V13.01,2013-05-15 02:24:00,
2013-05-14 22:25:00,74.0,58.1,30.17,NE,35,3.0,3.4,58,0.00,,---,0.00,VWS V13.01,2013-05-15 02:25:00,
2013-05-14 22:26:00,74.1,58.3,30.18,NNE,31,4.5,4.5,58,0.00,,---,0.00,VWS V13.01,2013-05-15 02:26:00,
2013-05-14 22:27:00,74.0,58.3,30.18,NNE,17,1.5,5.0,58,0.00,,---,0.00,VWS V13.01,2013-05-15 02:27:00,
2013-05-14 22:28:00,73.9,58.2,30.18,ENE,59,2.7,6.0,58,0.00,,---,0.00,VWS V13.01,2013-05-15 02:28:00,
2013-05-14 22:29:00,74.1,58.5,30.18,ENE,60,1.8,5.3,58,0.00,,---,0.00,VWS V13.01,2013-05-15 02:29:00,
2013-05-14 22:31:00,74.1,58.3,30.18,NE,38,3.4,4.6,58,0.00,,---,0.00,VWS V13.01,2013-05-15 02:31:00,
2013-05-14 22:33:00,74.0,58.2,30.18,NE,37,3.9,8.6,58,0.00,,---,0.00,VWS V13.01,2013-05-15 02:33:00,
2013-05-14 22:34:00,74.2,58.4,30.18,North,7,6.6,7.6,58,0.00,,---,0.00,VWS V13.01,2013-05-15 02:34:00,
2013-05-14 22:35:00,74.2,58.2,30.18,NNE,28,2.7,6.6,58,0.00,,---,0.00,VWS V13.01,2013-05-15 02:35:00,
2013-05-14 22:36:00,74.2,58.2,30.18,NE,41,3.2,4.5,58,0.00,,---,0.00,VWS V13.01,2013-05-15 02:36:00,
2013-05-14 22:37:00,74.2,58.2,30.18,NNE,25,3.1,5.3,57,0.00,,---,0.00,VWS V13.01,2013-05-15 02:37:00,
2013-05-14 22:38:00,74.1,58.1,30.18,NNE,14,2.5,5.2,57,0.00,,---,0.00,VWS V13.01,2013-05-15 02:38:00,
2013-05-14 22:39:00,74.2,58.2,30.18,NNE,28,1.2,3.4,58,0.00,,---,0.00,VWS V13.01,2013-05-15 02:39:00,
2013-05-14 22:40:00,74.1,58.2,30.18,NNW,339,2.2,3.7,58,0.00,,---,0.00,VWS V13.01,2013-05-15 02:40:00,
2013-05-14 22:42:00,74.3,58.3,30.18,North,0,3.0,5.8,57,0.00,,---,0.00,VWS V13.01,2013-05-15 02:42:00,
2013-05-14 22:43:00,74.0,57.9,30.18,NNW,336,7.1,7.1,57,0.00,,---,0.00,VWS V13.01,2013-05-15 02:43:00,
2013-05-14 22:44:00,73.9,57.8,30.18,NNE,25,4.2,7.1,57,0.00,,---,0.00,VWS V13.01,2013-05-15 02:44:00,
2013-05-14 22:45:00,74.1,57.8,30.18,NNE,25,2.7,7.6,57,0.00,,---,0.00,VWS V13.01,2013-05-15 02:45:00,
2013-05-14 22:46:00,74.2,58.0,30.18,ENE,60,3.4,5.7,57,0.00,,---,0.00,VWS V13.01,2013-05-15 02:46:00,
2013-05-14 22:47:00,74.1,58.0,30.18,North,4,2.0,3.7,57,0.00,,---,0.00,VWS V13.01,2013-05-15 02:47:00,
2013-05-14 22:48:00,74.3,58.2,30.18,NNW,346,2.0,3.0,57,0.00,,---,0.00,VWS V13.01,2013-05-15 02:48:00,
2013-05-14 22:49:00,74.0,58.0,30.18,North,353,4.7,6.6,57,0.00,,---,0.00,VWS V13.01,2013-05-15 02:49:00,
2013-05-14 22:50:00,74.1,57.9,30.18,NW,309,2.9,5.7,57,0.00,,---,0.00,VWS V13.01,2013-05-15 02:50:00,
2013-05-14 22:51:00,73.9,57.8,30.18,North,352,6.2,6.8,57,0.00,,---,0.00,VWS V13.01,2013-05-15 02:51:00,
2013-05-14 22:52:00,73.9,57.7,30.18,NE,38,3.4,6.3,57,0.00,,---,0.00,VWS V13.01,2013-05-15 02:52:00,
2013-05-14 22:53:00,73.9,57.8,30.18,NNW,339,1.0,4.0,57,0.00,,---,0.00,VWS V13.01,2013-05-15 02:53:00,
2013-05-14 22:54:00,74.1,57.9,30.18,NNE,25,3.0,5.2,57,0.00,,---,0.00,VWS V13.01,2013-05-15 02:54:00,
2013-05-14 22:55:00,74.1,58.0,30.18,North,354,6.0,6.0,57,0.00,,---,0.00,VWS V13.01,2013-05-15 02:55:00,
2013-05-14 22:56:00,74.0,57.9,30.18,NNW,346,1.4,6.0,57,0.00,,---,0.00,VWS V13.01,2013-05-15 02:56:00,
2013-05-14 22:57:00,74.0,57.9,30.18,NNE,18,2.9,4.3,57,0.00,,---,0.00,VWS V13.01,2013-05-15 02:57:00,
2013-05-14 22:58:00,74.0,58.0,30.18,North,3,3.4,3.7,57,0.00,,---,0.00,VWS V13.01,2013-05-15 02:58:00,
2013-05-14 22:59:00,73.9,58.0,30.18,NE,34,2.6,5.2,58,0.00,,---,0.00,VWS V13.01,2013-05-15 02:59:00,
2013-05-14 23:00:00,74.0,58.0,30.18,NNE,32,5.2,8.0,57,0.00,,---,0.00,VWS V13.01,2013-05-15 03:00:00,
2013-05-14 23:01:00,74.0,58.0,30.18,NNE,18,2.5,5.2,57,0.00,,---,0.00,VWS V13.01,2013-05-15 03:01:00,
2013-05-14 23:02:00,74.0,58.1,30.18,NNW,346,1.9,3.9,58,0.00,,---,0.00,VWS V13.01,2013-05-15 03:02:00,
2013-05-14 23:03:00,74.0,58.0,30.18,NNE,27,0.0,5.0,57,0.00,,---,0.00,VWS V13.01,2013-05-15 03:03:00,
2013-05-14 23:04:00,73.9,58.0,30.18,NNE,17,3.4,6.0,58,0.00,,---,0.00,VWS V13.01,2013-05-15 03:04:00,
2013-05-14 23:05:00,74.2,58.2,30.18,North,10,1.1,3.4,57,0.00,,---,0.00,VWS V13.01,2013-05-15 03:05:00,
2013-05-14 23:06:00,74.2,58.2,30.18,North,11,3.0,3.0,58,0.00,,---,0.00,VWS V13.01,2013-05-15 03:06:00,
2013-05-14 23:08:00,74.0,58.0,30.18,North,0,1.3,2.9,57,0.00,,---,0.00,VWS V13.01,2013-05-15 03:08:00,
2013-05-14 23:10:00,74.0,58.2,30.18,NW,325,0.0,0.0,58,0.00,,---,0.00,VWS V13.01,2013-05-15 03:10:00,
2013-05-14 23:11:00,74.0,58.0,30.18,North,8,3.4,3.4,57,0.00,,---,0.00,VWS V13.01,2013-05-15 03:11:00,
2013-05-14 23:12:00,73.9,57.6,30.18,NNW,335,4.4,6.0,57,0.00,,---,0.00,VWS V13.01,2013-05-15 03:12:00,
2013-05-14 23:13:00,73.9,57.8,30.18,NE,35,3.4,5.3,57,0.00,,---,0.00,VWS V13.01,2013-05-15 03:13:00,
2013-05-14 23:14:00,73.7,57.7,30.18,NE,38,3.5,5.7,57,0.00,,---,0.00,VWS V13.01,2013-05-15 03:14:00,
2013-05-14 23:15:00,73.8,57.8,30.18,North,359,1.8,4.0,57,0.00,,---,0.00,VWS V13.01,2013-05-15 03:15:00,
2013-05-14 23:16:00,73.7,57.7,30.18,North,11,2.4,5.5,57,0.00,,---,0.00,VWS V13.01,2013-05-15 03:16:00,
2013-05-14 23:17:00,73.8,57.9,30.18,North,11,3.9,3.9,58,0.00,,---,0.00,VWS V13.01,2013-05-15 03:17:00,
2013-05-14 23:19:00,73.8,57.8,30.18,North,0,1.1,3.9,57,0.00,,---,0.00,VWS V13.01,2013-05-15 03:19:00,
2013-05-14 23:20:00,73.8,57.6,30.18,NNW,346,1.4,6.0,57,0.00,,---,0.00,VWS V13.01,2013-05-15 03:20:00,
2013-05-14 23:22:00,73.9,57.7,30.18,NNW,342,2.2,5.5,57,0.00,,---,0.00,VWS V13.01,2013-05-15 03:22:00,
2013-05-14 23:23:00,73.8,57.6,30.18,NE,35,5.1,5.2,57,0.00,,---,0.00,VWS V13.01,2013-05-15 03:23:00,
2013-05-14 23:24:00,73.9,57.6,30.18,North,8,2.7,5.9,57,0.00,,---,0.00,VWS V13.01,2013-05-15 03:24:00,
2013-05-14 23:25:00,73.7,57.2,30.18,NNE,20,7.8,10.9,56,0.00,,---,0.00,VWS V13.01,2013-05-15 03:25:00,
2013-05-14 23:26:00,73.8,57.4,30.18,North,3,6.3,8.8,56,0.00,,---,0.00,VWS V13.01,2013-05-15 03:26:00,
2013-05-14 23:27:00,73.8,57.4,30.18,NE,35,5.6,6.3,57,0.00,,---,0.00,VWS V13.01,2013-05-15 03:27:00,
2013-05-14 23:28:00,74.0,57.6,30.18,North,353,6.0,7.1,57,0.00,,---,0.00,VWS V13.01,2013-05-15 03:28:00,
2013-05-14 23:29:00,73.8,57.1,30.18,NNE,27,7.0,7.2,56,0.00,,---,0.00,VWS V13.01,2013-05-15 03:29:00,
2013-05-14 23:30:00,73.8,57.1,30.18,NE,41,3.5,7.0,56,0.00,,---,0.00,VWS V13.01,2013-05-15 03:30:00,
2013-05-14 23:32:00,74.1,57.6,30.18,NNE,27,1.5,6.3,56,0.00,,---,0.00,VWS V13.01,2013-05-15 03:32:00,
2013-05-14 23:33:00,74.0,57.5,30.18,North,354,5.3,6.6,56,0.00,,---,0.00,VWS V13.01,2013-05-15 03:33:00,
2013-05-14 23:34:00,74.0,57.4,30.18,NE,38,4.9,6.4,56,0.00,,---,0.00,VWS V13.01,2013-05-15 03:34:00,
2013-05-14 23:35:00,74.0,57.4,30.18,NNE,24,2.9,5.8,56,0.00,,---,0.00,VWS V13.01,2013-05-15 03:35:00,
2013-05-14 23:36:00,74.1,57.4,30.18,North,354,1.6,4.0,56,0.00,,---,0.00,VWS V13.01,2013-05-15 03:36:00,
2013-05-14 23:37:00,74.0,57.3,30.18,North,4,3.7,3.9,56,0.00,,---,0.00,VWS V13.01,2013-05-15 03:37:00,
2013-05-14 23:38:00,74.0,56.9,30.18,NNW,330,2.4,3.8,55,0.00,,---,0.00,VWS V13.01,2013-05-15 03:38:00,
2013-05-14 23:39:00,74.0,57.0,30.18,NE,38,2.7,6.3,55,0.00,,---,0.00,VWS V13.01,2013-05-15 03:39:00,
2013-05-14 23:40:00,74.0,57.1,30.18,NNE,27,4.5,5.7,56,0.00,,---,0.00,VWS V13.01,2013-05-15 03:40:00,
2013-05-14 23:42:00,73.9,57.1,30.18,NNE,14,6.5,10.6,56,0.00,,---,0.00,VWS V13.01,2013-05-15 03:42:00,
2013-05-14 23:45:00,74.1,57.3,30.18,NE,34,5.3,6.0,56,0.00,,---,0.00,VWS V13.01,2013-05-15 03:45:00,
2013-05-14 23:46:00,74.2,57.5,30.18,North,3,2.0,5.3,56,0.00,,---,0.00,VWS V13.01,2013-05-15 03:46:00,
2013-05-14 23:47:00,74.0,57.1,30.18,NNE,15,4.5,5.5,56,0.00,,---,0.00,VWS V13.01,2013-05-15 03:47:00,
2013-05-14 23:48:00,74.0,57.1,30.18,NE,35,2.2,4.8,56,0.00,,---,0.00,VWS V13.01,2013-05-15 03:48:00,
2013-05-14 23:51:00,74.0,56.9,30.18,North,8,2.9,7.2,55,0.00,,---,0.00,VWS V13.01,2013-05-15 03:51:00,
2013-05-14 23:52:00,74.1,57.1,30.18,NE,44,6.2,6.6,55,0.00,,---,0.00,VWS V13.01,2013-05-15 03:52:00,
2013-05-14 23:53:00,73.9,56.9,30.18,NNW,328,2.0,6.8,55,0.00,,---,0.00,VWS V13.01,2013-05-15 03:53:00,
2013-05-14 23:54:00,74.2,57.1,30.18,NE,46,1.6,6.7,55,0.00,,---,0.00,VWS V13.01,2013-05-15 03:54:00,
2013-05-14 23:55:00,74.0,57.1,30.18,NNW,342,3.7,5.5,56,0.00,,---,0.00,VWS V13.01,2013-05-15 03:55:00,
2013-05-14 23:56:00,74.1,57.3,30.18,NNE,32,3.5,4.3,56,0.00,,---,0.00,VWS V13.01,2013-05-15 03:56:00,
2013-05-14 23:57:00,74.2,57.4,30.18,North,8,1.5,4.5,56,0.00,,---,0.00,VWS V13.01,2013-05-15 03:57:00,
2013-05-14 23:58:00,74.1,57.4,30.18,NE,38,0.0,2.1,56,0.00,,---,0.00,VWS V13.01,2013-05-15 03:58:00,
2013-05-14 23:59:00,74.2,57.5,30.18,NNE,13,0.9,2.4,56,0.00,,---,0.00,VWS V13.01,2013-05-15 03:59:00,